[{"header": {"dx": 0.06612293990616946, "dy": 0.0552356325346848, "nx": 98, "ny": 59, "la1": 35.046912555036876, "la2": 31.78801023549047, "lo1": -121.43107172385933, "lo2": -114.95102361305473, "refTime": "2026041713", "parameterCategory": 1, "parameterNumber": 2}, "data": [3.98, 2.27, 0.0, 0.0, -2.47, -2.34, -2.28, -2.57, -6.8, -12.27, -12.79, -11.99, -11.09, -11.12, -10.8, -10.68, -10.88, -10.75, -11.46, -12.52, -12.96, -12.71, -10.4, -8.73, -7.9, -6.97, -8.53, -6.94, -5.4, -0.0, -0.0, 5.8, 8.85, 10.0, 10.28, 9.83, -0.0, -0.0, -2.28, -4.6, -7.87, -10.96, -11.62, -12.52, -15.34, -15.72, -17.45, -15.64, -10.66, -6.2, -4.52, -5.48, -5.64, -5.81, -8.05, -9.39, -9.39, -9.39, -7.0, -7.0, -3.79, -4.95, 0.0, 0.0, 10.75, 14.84, 16.09, 16.09, 15.78, 15.27, 14.39, 15.04, 15.04, 15.43, 15.49, 15.53, 14.6, 14.3, 14.75, 14.6, 13.57, 13.23, 12.04, 11.2, 10.8, 10.4, 12.07, 11.18, 11.18, 10.75, 9.84, 6.4, 1.83, 0.0, -1.63, -1.42, -2.63, -1.97, 5.27, 4.45, 2.27, 0.0, 0.0, 0.0, 0.0, -2.21, -6.8, -12.27, -12.87, -12.27, -9.48, -8.85, -11.6, -10.8, -9.6, -11.45, -11.91, -11.51, -13.41, -12.96, -12.71, -10.37, -7.59, -6.71, -8.22, -8.53, -8.53, -11.2, -10.12, -0.0, -0.0, 9.83, 8.05, 8.94, 8.05, -0.0, -2.97, -5.7, -11.2, -13.41, -12.96, -14.11, -15.01, -16.44, -16.31, -12.88, -6.88, -5.81, -6.6, -6.8, -4.81, -6.8, -6.8, -8.05, -9.39, -9.12, -8.68, -4.95, -4.95, 0.0, 0.0, 15.2, 15.2, 15.65, 16.09, 15.78, 14.94, 13.8, 14.79, 14.39, 15.27, 15.05, 15.2, 14.75, 14.75, 14.3, 14.75, 14.6, 13.57, 13.23, 12.04, 11.2, 10.8, 10.4, 12.07, 11.18, 11.18, 10.75, 9.84, 6.4, 1.83, 0.0, -1.63, -1.42, -2.63, -1.97, 6.81, 5.8, 6.44, 4.34, 2.22, 0.0, 0.0, 0.0, -2.5, -6.6, -11.44, -9.17, -8.31, -4.1, -5.2, -11.62, -11.4, -11.18, -11.61, -12.79, -11.51, -12.35, -12.52, -13.41, -12.39, -8.58, -7.59, -7.59, -7.9, -11.03, -14.75, -15.2, -14.3, -11.18, -8.06, -8.0, -7.6, -6.32, -4.4, -8.22, -12.07, -14.55, -17.53, -17.63, -17.45, -15.17, -11.35, -7.79, -7.82, -6.8, -6.8, -5.34, -6.8, -7.82, -9.22, -10.75, -10.75, -11.06, -8.68, 0.0, 0.0, 0.0, 15.2, 15.2, 15.2, 15.65, 13.99, 13.02, 11.06, 10.05, 11.38, 12.36, 14.38, 15.08, 14.75, 14.31, 13.97, 15.11, 14.03, 13.81, 12.79, 12.33, 11.6, 10.35, 9.67, 11.28, 11.18, 11.18, 11.02, 11.44, 12.35, 12.56, 9.66, 6.8, 0.0, -3.36, -4.81, -2.45, 7.58, 8.2, 7.44, 6.28, 4.34, 2.16, 0.0, 0.0, 0.0, -2.89, -5.31, -6.2, -5.31, -4.65, -3.82, -8.22, -11.62, -11.91, -11.53, -12.07, -11.18, -11.18, -11.02, -11.09, -12.07, -12.58, -9.2, -6.95, -5.46, -10.6, -12.07, -13.86, -15.34, -13.42, -10.01, -8.58, -8.23, -5.95, -5.6, -13.86, -13.76, -16.48, -18.26, -14.95, -13.03, -10.82, -9.8, -7.93, -8.18, -7.32, -6.6, -7.54, -9.22, -11.8, -11.8, -11.8, -12.16, -11.06, -4.95, 0.0, 0.0, 10.75, 14.75, -0.0, 14.75, -15.2, 15.65, 11.06, 12.33, 10.73, 13.59, 13.99, 15.18, 14.47, 14.23, 13.77, 13.81, 12.89, 14.11, 11.75, 10.91, 10.3, 9.96, 9.3, 6.2, 8.22, 12.07, 11.62, 10.38, 13.2, 13.36, 12.01, 9.39, 14.75, -13.41, -11.99, -5.8, -2.45, 8.78, 9.43, 8.2, 7.26, 5.65, 4.34, 2.16, 0.0, 0.0, 0.0, 0.0, 0.0, -2.81, -4.81, -4.48, -5.4, -9.67, -12.07, -11.53, -11.98, -12.71, -12.27, -11.4, -11.62, -10.58, -11.84, -12.14, -8.53, -5.0, -0.0, 10.73, -10.0, -10.4, -11.2, -12.79, -11.44, -12.16, -9.8, -11.38, 0.0, -3.33, -12.16, -13.15, -13.59, -12.87, -11.09, -10.12, -10.12, -10.43, -10.75, -10.43, -10.12, -11.44, -13.19, -13.19, -14.31, -12.65, -11.06, -4.95, 0.0, 0.0, 0.0, 14.3, -10.43, -14.75, -14.79, -12.01, -7.4, 0.0, 0.0, 18.66, 17.53, 18.33, 17.43, 15.65, 12.96, 13.79, 12.79, 11.75, 11.72, 10.55, 8.3, 7.02, 5.75, 2.71, 2.28, 7.24, 9.17, 12.52, 13.23, 11.48, 9.77, 5.48, -6.0, -12.58, -11.16, -5.8, -2.45, 9.24, 8.78, 9.43, 8.0, 7.26, 5.65, 4.23, 2.11, 2.0, 0.0, 2.15, 0.0, 0.0, -2.54, -3.96, -4.48, -10.8, -11.84, -11.45, -11.45, -11.4, -10.04, -6.0, -0.0, -5.6, -10.8, -11.45, -12.07, -12.96, 12.07, 8.8, -0.0, -8.82, -10.47, -11.98, -13.72, -13.23, -13.44, 15.2, 3.47, 0.0, -8.58, -13.15, -14.03, -12.79, -8.18, 0.0, 0.0, 0.0, -10.12, -9.8, -9.8, -9.8, -12.79, -13.19, -12.27, -13.19, -13.19, -10.75, -6.6, 0.0, 0.0, -14.75, -15.2, -13.39, -9.42, -5.51, -4.01, -2.79, 0.0, 3.1, 6.36, 11.45, 16.3, 17.56, 16.31, 13.23, 12.3, 11.92, 11.85, 9.82, 8.22, 5.98, 3.68, 1.28, 1.05, 3.81, 8.74, 11.6, 9.92, 7.2, 7.0, 0.0, -10.37, -11.12, -6.9, -4.81, -2.45, 8.69, 9.24, 9.84, 9.2, 8.0, 7.26, 5.51, 3.78, 1.83, 1.73, 1.89, 0.0, 0.0, 0.0, 0.0, -5.2, -10.04, -12.52, -11.2, -5.4, -8.53, -9.48, -13.86, 12.96, -0.0, 11.62, 11.62, -5.4, -3.96, -7.59, -0.0, -5.46, -8.18, -9.11, -11.06, -12.96, -12.52, -13.41, 0.0, 5.7, 2.45, -6.67, -11.64, -11.68, -9.39, -7.82, -3.9, 0.0, 6.2, 0.0, -4.52, -3.36, -7.93, -12.27, -12.79, -11.53, -12.79, -14.3, -12.79, -6.2, 0.0, -13.41, -15.2, -14.39, -9.17, -6.14, -3.33, -2.65, -1.94, 0.0, 0.0, 0.0, 2.25, 4.54, 8.56, 11.36, 12.82, 12.72, 13.01, 11.77, 9.89, 9.17, 6.57, 2.81, 1.78, 2.52, 4.89, 6.36, 7.32, 6.01, 4.26, 1.45, -8.05, -11.99, -10.47, -5.8, -3.96, -2.13, 9.37, 9.92, 10.52, 9.6, 9.2, 8.0, 7.08, 5.37, 3.59, 3.39, 3.3, 0.0, 0.0, 4.24, 12.39, 8.53, 8.85, 13.41, 12.3, 10.41, 6.94, -0.0, 12.96, 0.0, 9.8, 8.53, 0.0, -5.6, -8.22, -10.6, -11.18, -11.28, -10.96, -10.52, -11.18, -11.18, -10.75, -9.58, -6.94, 6.45, 5.0, 0.0, -7.54, -8.51, -7.82, -7.98, -7.0, -3.16, 0.0, 0.0, 0.0, 0.0, 0.0, -9.8, -9.8, -13.86, 13.86, 13.86, 13.41, 0.0, 0.0, 13.41, -10.75, -11.06, -7.2, -4.12, 0.0, 3.07, 0.0, 0.0, 2.22, 1.82, 2.45, 2.07, 3.18, 4.34, 7.36, 10.73, 11.8, 12.6, 13.02, 10.81, 8.57, 5.96, 2.36, 1.51, 3.38, 5.92, 6.16, 3.59, 0.0, -5.09, -10.91, -11.53, -8.38, -3.44, -1.71, -1.61, 9.67, 10.18, 9.92, 10.52, 9.6, 8.0, 6.47, 6.31, 4.75, 4.62, 4.37, 1.38, 0.0, 0.0, 6.0, 10.79, 13.01, 13.41, 12.04, 7.51, -0.0, -0.0, -0.0, 13.86, 0.0, 0.0, -2.39, -6.44, -10.8, -10.18, -10.4, -11.71, -12.27, -12.07, -11.18, -10.28, -10.52, -8.58, -6.97, 0.0, 4.65, 2.45, 0.0, -8.05, -8.58, -8.31, -9.66, -6.69, -2.65, 0.0, 0.0, 0.0, 0.0, 0.0, 13.86, 13.86, 13.86, 12.96, 12.52, 12.52, 11.2, 10.75, 0.0, -15.65, -16.09, -16.99, 12.33, 16.09, 14.75, 14.75, 16.09, 16.31, 15.36, 12.22, 10.43, 8.58, 6.2, 6.67, 9.32, 12.05, 14.09, 12.0, 10.99, 9.44, 7.89, 4.12, 1.65, 1.27, -5.09, -15.2, -10.37, -9.96, -9.76, -8.83, -7.11, -2.72, -1.33, -1.2, 9.43, 10.18, 10.18, 9.92, 9.6, 8.56, 7.21, 6.31, 5.98, 5.5, 5.35, 4.0, 2.11, 0.0, 0.0, 2.63, 6.2, 11.53, 13.86, -0.0, -5.6, -3.96, -0.0, 13.41, -9.48, -8.53, -6.95, -10.4, -11.99, -8.53, -5.6, -10.12, -12.39, -11.84, -11.4, -11.4, -9.6, -6.98, -5.98, 0.0, 0.0, 1.77, 3.82, 0.0, -5.98, -8.1, -9.02, -7.93, -6.47, -2.21, -2.89, 0.0, 0.0, 13.86, 13.86, 14.3, 13.86, 12.96, 12.52, 11.87, 12.27, 11.7, 0.0, -16.09, -16.09, -17.43, -0.0, 11.38, 9.8, 11.17, 13.19, 14.65, 15.61, 15.97, 15.65, 13.77, 11.99, 8.85, 7.78, 8.99, 12.01, 13.6, 14.56, 13.51, 11.97, 10.47, 9.13, 10.12, 3.47, 4.81, -0.0, -10.01, -7.28, -6.21, -5.11, -2.81, -2.13, -2.06, 10.13, 10.13, 10.18, 10.73, 9.92, 9.6, 8.35, 6.84, 6.84, 6.66, 6.02, 5.85, 4.81, 1.19, -2.21, 0.0, 0.0, 2.35, 4.66, 14.75, -15.65, -15.65, -14.75, -12.52, -12.96, -10.41, -9.75, -9.83, 10.28, -5.6, -5.4, -6.95, -6.95, -9.83, -9.7, -10.79, -9.3, -8.22, -6.45, -3.44, -1.83, -2.06, 0.0, 12.07, -8.22, -8.22, -9.08, -8.85, -8.54, -8.59, -10.43, -11.38, -11.38, 16.09, 16.09, -16.54, -14.79, -0.0, 11.18, 12.72, 13.95, 9.92, 0.0, -14.39, -16.09, -16.96, -15.99, -0.0, 5.64, 9.17, 11.53, 13.19, 15.27, 15.99, 15.2, 12.94, 11.03, 10.35, 10.69, 9.49, 10.19, 12.33, 12.46, 15.61, 15.02, 14.58, 15.15, 15.2, 14.07, 13.09, 12.42, 12.35, 2.45, -4.93, -4.06, -3.14, -2.54, -2.92, 9.67, 10.13, 10.39, 10.18, 9.92, 9.01, 8.78, 7.4, 7.4, 7.4, 7.2, 6.56, 6.02, 4.5, 0.0, -1.83, 0.0, 0.0, 0.0, 13.86, 14.3, -14.75, -14.3, -15.65, -13.41, -12.52, -12.07, -8.06, -10.73, -10.41, -9.3, -9.6, -10.73, -9.97, -10.28, -9.96, -8.38, -9.08, -8.22, -6.7, -7.51, -10.04, -11.62, -11.62, -10.73, -9.55, -10.8, -11.2, -11.12, -11.88, -11.9, -14.18, -17.43, -19.73, -19.22, -19.22, -19.84, -17.81, 12.07, 12.39, 12.64, 9.43, 0.0, -13.39, -15.78, -19.22, -22.05, -18.97, 4.88, 12.01, 12.27, 12.39, 13.7, 14.42, 12.96, 11.4, 10.92, 13.43, 13.51, 12.22, 11.38, 10.47, 11.29, 15.45, 17.52, 18.8, 17.14, 15.08, 14.6, 13.82, 12.48, 11.4, 11.18, 8.22, 0.0, -3.41, -3.81, -3.81, 10.31, 10.31, 10.13, 10.18, 10.18, 9.92, 8.78, 8.56, 7.84, 7.63, 6.74, 6.56, 6.02, 5.98, 4.01, 0.0, 0.0, 0.0, 0.0, 13.86, -14.3, -14.75, -14.9, -14.55, -13.75, -13.32, -12.89, -12.46, -12.0, -9.79, -10.6, -11.18, -10.73, -10.28, -10.28, -10.14, -10.14, -10.6, -10.27, -10.0, -10.79, -11.4, -11.18, -9.33, -8.55, -8.58, -10.4, -10.48, -10.79, -10.47, -10.19, -11.37, -11.9, -12.65, -14.75, -15.91, -19.08, -22.8, 7.2, 8.53, 11.38, 5.23, -3.42, -13.8, -16.85, -18.68, -21.2, -24.55, -24.59, 25.03, 21.92, 19.93, 13.88, 11.4, 9.83, 11.49, 13.99, 14.13, 13.9, 13.55, 12.87, 12.56, 10.77, 9.92, 13.74, 16.53, 18.26, 16.74, 15.27, 13.75, 13.32, 11.28, 10.6, 11.03, 11.62, 6.0, -2.13, -4.24, 10.31, 10.31, 10.39, 10.39, 10.18, 10.18, 9.14, 8.9, 8.9, 7.84, 7.63, 7.0, 6.02, 5.5, 7.4, 5.51, 0.0, 0.0, 0.0, -11.06, -15.2, -15.2, -15.2, -15.05, -15.55, -15.11, -15.12, -14.68, -13.79, -12.96, -10.73, -10.73, -11.18, -9.64, -9.64, -9.83, -9.83, -10.28, -10.18, -10.58, -10.58, -10.08, -10.41, -7.27, -4.4, -4.6, -8.4, -10.38, -9.67, -9.77, -10.73, -10.35, -8.53, -8.53, -8.85, -9.3, -12.35, -12.01, 5.2, 9.8, 8.05, 2.57, -3.24, -10.61, -11.7, -13.23, -13.95, -13.28, -9.6, 0.0, 16.75, 22.35, 18.19, 10.12, 11.11, 13.56, 14.79, 15.31, 14.13, 13.59, 13.59, 13.76, 12.65, 11.76, 9.09, 10.68, 13.58, 15.42, 14.85, 15.02, 13.47, 11.11, 11.03, 11.2, 12.33, 12.45, 11.12, 4.81, 9.88, 10.31, 9.92, 10.39, 9.67, 9.91, 10.18, 9.92, 8.43, 8.67, 7.63, 7.0, 6.19, 6.19, 6.14, 7.8, 5.51, 0.0, 0.0, -12.01, -14.79, -16.09, -15.65, -15.53, -15.55, -15.55, -15.12, -14.66, -14.22, -13.77, -12.42, -10.28, -11.18, -9.75, -9.75, -10.28, -10.73, -9.83, -11.18, -9.83, -10.28, -10.73, -9.83, -6.95, 9.83, 9.83, 9.83, -10.28, -10.73, -10.96, -11.4, -10.38, -8.93, -8.4, 9.83, -9.6, -8.93, -8.05, -2.79, 4.79, 6.87, 2.13, -1.96, -5.02, -8.18, -9.49, -10.33, -9.42, -7.98, -10.35, -4.03, 12.87, 17.11, 10.01, 10.63, 12.71, 13.49, 14.65, 14.4, 15.19, 15.59, 16.33, 15.27, 12.94, 12.04, 8.65, 9.27, 11.38, 12.36, 13.38, 15.19, 12.18, 10.96, 10.73, 11.99, 11.92, 11.6, 11.6, 9.88, 9.88, 10.57, 9.92, 9.92, 9.91, 9.67, 9.67, 9.19, 8.21, 7.63, 7.2, 6.19, 6.36, 7.03, 8.25, 7.8, 5.51, 0.0, -7.8, -16.54, -16.99, -16.54, -16.09, -15.65, -15.55, -15.11, -15.12, -15.12, -14.66, -14.22, -12.96, -10.28, -10.73, -10.28, -8.94, -10.28, -10.14, -10.41, -10.28, -9.39, -9.39, -10.28, -9.83, -9.83, -0.0, -0.0, -7.27, -7.27, -9.2, -11.18, -11.62, -11.62, 10.73, -0.0, -0.0, -10.28, -6.45, -6.6, 0.0, 3.82, 0.0, 0.0, 0.0, -2.93, -9.17, -9.17, -11.44, -14.39, -18.26, -6.79, 4.94, 11.27, 12.73, 9.89, 11.17, 12.01, 14.26, 16.39, 18.33, 17.97, 18.14, 16.99, 14.75, 12.02, 10.96, 9.48, 9.84, 9.76, 10.43, 12.82, 11.04, 10.94, 11.16, 11.12, 10.04, 10.41, 10.41, 10.46, 9.88, 10.13, 9.92, 9.92, 10.17, 10.17, 10.39, 9.43, 8.43, 7.2, 6.74, 5.94, 5.94, 6.1, 7.03, 6.9, 6.12, 0.0, -5.51, -15.59, -16.99, -16.99, -16.54, -16.09, -15.99, -16.09, -16.01, -16.01, -16.01, -15.57, -14.66, -12.96, -12.07, -8.94, -9.26, -9.74, -10.52, -10.08, -9.83, -9.83, -8.48, -10.28, -8.94, -9.83, -9.83, -10.28, -10.28, -10.28, -7.27, -7.27, -10.73, 11.18, 10.73, 10.73, -0.0, 7.27, 10.73, 0.0, 0.0, 12.52, 11.18, 10.73, 10.73, 7.59, 4.6, -11.62, -10.68, -12.39, -13.95, 0.0, 5.8, 8.0, 10.65, 8.37, 8.9, 8.6, 11.8, 16.37, 18.78, 17.88, 17.43, 16.92, 15.02, 13.94, 11.28, 11.45, 11.12, 10.18, 10.36, 12.13, 11.03, 9.77, 9.17, 10.02, 9.42, 9.77, 9.77, 10.05, 9.88, 10.13, 10.13, 9.92, 10.17, 10.17, 9.92, 10.13, 9.19, 8.21, 7.63, 6.93, 5.94, 6.1, 7.4, 7.21, 7.08, 2.4, 0.0, -11.7, -16.48, -16.37, -16.09, -16.01, -15.99, -16.44, -16.01, -16.01, -16.03, -15.39, -14.95, -14.03, -11.4, -10.28, -10.14, -9.74, -10.28, -9.83, -9.54, -9.54, -9.54, -9.33, -9.2, -10.28, -10.28, -10.73, -10.28, -10.28, -10.28, 10.28, 10.28, 10.28, 10.28, 10.28, -0.0, 7.27, 4.8, 5.0, 5.0, 8.53, 11.62, 7.59, 4.8, -0.0, -0.0, -0.0, -9.2, -10.8, -7.76, 2.22, 6.22, 7.3, 8.6, 5.2, 2.4, 0.0, 2.66, 10.12, 13.28, 13.39, 14.88, 15.45, 11.16, 11.04, 10.66, 10.37, 11.6, 10.09, 8.94, 10.12, 10.03, 8.6, 7.64, 9.57, 9.17, 8.85, 8.85, 10.05, 9.47, 9.88, 9.88, 10.13, 10.13, 9.71, 9.92, 9.92, 9.43, 8.21, 7.4, 6.52, 6.69, 5.56, 8.4, 7.4, 6.84, 3.9, 0.0, 0.0, -12.33, -16.31, -16.99, -15.65, -16.09, -12.96, -15.2, -15.65, -13.8, -14.07, -13.88, -13.01, -11.45, -10.6, -10.45, -10.25, -10.7, -10.6, -10.41, -9.13, -9.97, -10.6, -10.0, -11.62, -10.73, -10.73, -10.28, -10.28, -10.28, -7.27, -7.27, -0.0, -0.0, -0.0, -0.0, 7.27, 10.0, 10.8, 11.62, 11.62, 11.62, 11.18, -0.0, -0.0, -0.0, -0.0, 4.6, 10.73, 0.0, 8.0, 14.22, 14.88, 15.36, 2.59, 0.0, -0.95, 0.0, 2.25, 6.26, 9.19, 10.31, 10.15, 10.23, 10.54, 10.54, 11.29, 10.15, 9.67, 7.63, 7.93, 8.59, 9.48, 7.63, 7.69, 9.06, 8.78, 8.78, 10.05, 10.05, 9.47, 9.88, 10.13, 10.13, 10.13, 10.13, 9.92, 8.97, 8.43, 8.21, 7.4, 6.69, 6.69, 6.52, 6.93, 6.02, 2.79, 0.0, 0.0, 0.0, -15.77, -17.2, -15.87, -15.43, -14.75, -13.41, -13.86, -12.91, -12.47, -12.35, -11.71, -11.71, -11.28, -10.41, -10.58, -10.73, -10.68, -10.23, -10.66, -10.73, -11.18, -11.18, -11.18, -11.62, -10.28, -10.28, -10.28, -6.95, -6.95, -4.6, -4.8, -0.0, -0.0, -0.0, 7.9, 8.93, 10.73, 11.62, 11.18, 10.73, 10.73, -0.0, -0.0, -0.0, 3.25, 7.9, 9.66, 10.73, 16.22, 19.67, 24.14, 25.86, 18.02, 4.12, 1.88, 0.0, 0.83, 4.55, 6.54, 8.03, 8.86, 8.99, 9.37, 9.5, 8.84, 8.61, 8.95, 6.94, 6.36, 7.49, 8.83, 7.49, 6.2, 7.54, 8.4, 8.4, 10.05, 10.05, 10.05, 10.05, 9.88, 9.88, 10.13, 10.13, 9.92, 9.92, 8.74, 7.78, 6.99, 7.18, 7.18, 7.18, 6.52, 5.26, 3.58, 0.0, 0.0, -2.57, -13.8, -15.61, -15.41, -15.41, -14.47, -13.79, -12.96, -12.07, -11.57, -11.57, -11.44, -11.44, -11.44, -11.0, -11.13, -10.68, -10.73, -11.18, -11.18, -11.18, -11.18, -12.07, -11.62, -12.07, -9.83, -10.28, -10.28, -9.2, -6.95, -4.6, -4.8, -5.0, -0.0, -0.0, 6.2, 7.9, 11.62, 11.18, 11.18, 11.18, -0.0, -0.0, -0.0, -0.0, -0.0, 4.48, 6.67, 8.66, 12.22, 16.75, 23.17, 23.75, 14.7, 8.97, 3.35, -1.58, -2.42, 0.85, 5.25, 6.85, 7.98, 7.44, 9.21, 8.73, 11.5, 13.23, 12.89, 9.16, 7.18, 6.65, 7.59, 6.9, 5.55, 6.28, 7.23, 7.23, 9.42, 10.05, 10.05, 10.05, 10.05, 9.88, 9.88, 10.13, 10.13, 9.67, 8.74, 7.78, 7.78, 6.81, 6.81, 7.18, 7.18, 6.34, 4.73, 2.72, 0.0, -5.34, -12.27, -14.75, -15.71, -16.15, -15.99, -15.11, -13.86, -12.96, -12.07, -11.57, -11.57, -11.57, -11.57, -11.12, -11.55, -11.55, -11.09, -11.09, -11.06, -11.18, -11.18, -12.07, -11.18, -10.73, -10.73, -9.83, -10.28, -9.2, -9.2, -7.59, -7.59, -5.0, -0.0, -0.0, -0.0, -0.0, -0.0, 10.73, 10.28, 10.73, -0.0, -0.0, -0.0, -0.0, -0.0, 2.37, 2.13, -0.0, 3.07, 14.22, 20.32, 23.67, 3.53, 5.6, 8.74, 4.07, -2.88, -2.87, 1.74, 4.67, 6.19, 8.83, 10.12, 11.99, 13.23, 14.11, 13.19, 10.8, 9.27, 8.18, 8.31, 7.5, 5.99, 5.99, 6.99, 6.99, 9.42, 9.42, 9.42, 10.05, 10.05, 10.05, 9.88, 9.88, 9.88, 9.88, 9.42, 8.51, 7.78, 7.4, 7.6, 7.6, 7.99, 6.99, 6.52, 4.12, 0.0, -5.65, -11.33, -13.15, -13.81, -15.18, -15.61, -15.97, -15.2, -14.3, -13.41, -12.96, -12.0, -11.55, -11.55, -11.53, -11.53, -11.51, -11.51, -11.46, -11.46, -11.4, -11.4, -11.4, -11.4, -10.96, -10.73, -9.39, -9.39, -10.28, -7.27, -7.59, -7.59, -5.0, -0.0, -0.0, -2.71, -5.8, -11.6, -9.39, -9.39, -10.28, -0.0, 3.68, 2.71, -0.0, -0.0, -0.0, -0.0, -2.45, -4.38, -0.0, -11.8, -9.8, 0.0, 2.21, 6.79, 10.75, 4.67, -3.59, -2.12, 0.89, 2.21, 3.52, 6.1, 8.31, 10.43, 10.12, 10.75, 12.64, 11.14, 9.7, 9.16, 8.78, 7.93, 8.31, 7.68, 7.68, 9.42, 9.42, 9.42, 9.42, 10.05, 10.05, 10.05, 9.88, 9.88, 9.88, 9.0, 8.77, 8.11, 8.11, 7.23, 7.23, 7.6, 6.99, 6.52, 6.53, 1.69, -4.01, -11.06, -12.65, -12.42, -13.56, -14.61, -15.49, -15.65, -15.2, -14.3, -13.86, -12.96, -12.52, -11.51, -11.06, -11.02, -11.02, -11.4, -11.4, -11.4, -11.28, -11.28, -11.28, -9.67, -10.84, -12.52, -11.18, -10.73, -11.18, -8.22, -7.9, -7.59, -7.59, -4.6, -0.0, -3.25, -6.7, -9.17, -11.62, 8.94, 9.39, -0.0, 3.68, 2.71, 3.82, 2.93, 3.04, 2.71, -0.0, 11.18, 9.2, 25.93, -0.0, 16.54, 3.25, 6.65, 9.17, 11.8, 4.37, -2.15, -2.08, 0.0, 2.28, 3.13, 4.58, 6.89, 8.74, 10.23, 9.92, 11.56, 9.02, 9.21, 10.82, 12.27, 11.17, 10.43, 10.43, 9.42, 9.42, 9.42, 9.42, 9.8, 9.8, 10.05, 10.05, 9.47, 9.88, 9.62, 8.77, 8.77, 8.11, 7.74, 7.95, 7.4, 7.4, 6.99, 5.56, 4.47, 0.0, -6.52, -11.38, -12.65, -12.27, -13.19, -13.99, -14.99, -14.75, -14.75, -14.3, -13.41, -12.96, -12.52, -11.4, -10.96, -10.84, -10.84, -11.28, -11.28, -11.03, -10.6, -10.6, -7.9, -7.59, -8.22, -7.59, -4.4, -3.11, -3.39, -0.0, -0.0, -7.59, -7.27, -4.6, -4.6, -4.4, -8.22, 12.52, 11.18, 8.4, 6.95, 4.8, 3.68, -0.0, 3.82, 2.93, 5.4, 11.62, 9.48, 12.52, 21.9, 26.89, 25.95, 19.51, 17.88, 14.38, 12.13, 12.72, 7.69, -0.73, -0.72, 1.54, 3.44, 4.06, 5.69, 7.11, 7.8, 6.66, 7.6, 8.85, 10.99, 13.19, 12.33, 12.74, 12.39, 12.39, 9.17, 9.17, 9.17, 9.42, 9.42, 10.32, 10.32, 9.8, 10.05, 10.05, 9.62, 9.62, 8.77, 8.77, 7.74, 7.74, 7.74, 7.4, 6.99, 6.14, 5.0, 1.69, -2.11, -7.4, -9.77, -11.87, -12.65, -13.28, -14.03, -14.3, -14.3, -13.86, -13.41, -13.01, -12.14, -11.45, -11.03, -10.6, -10.6, -10.0, -10.0, -10.4, -10.0, -7.9, -4.8, -4.8, -5.2, -0.0, -0.0, -0.0, -0.0, -0.0, -0.0, -0.0, -7.9, -4.8, -7.27, -6.95, -9.2, -8.22, -0.0, 5.4, 6.64, 4.4, 3.53, 2.93, 3.04, 5.6, 11.6, 12.52, 10.8, 12.79, 16.76, 24.14, 26.74, 23.06, 20.34, 17.88, 12.3, 10.62, 12.72, 9.8, 1.68, 0.0, 0.0, 2.59, 4.75, 5.62, 5.67, 2.98, 2.11, 10.59, 12.37, 13.99, 12.87, 12.79, 13.15, 13.15, 9.17, 9.17, 9.17, 9.42, 9.95, 10.32, 10.32, 10.32, 9.8, 9.8, 9.8, 9.23, 9.37, 8.77, 8.39, 8.39, 7.74, 7.74, 7.4, 6.99, 6.52, 4.35, 1.83, -2.34, -5.09, -8.05, -9.12, -12.27, -13.57, -13.86, -13.41, -13.41, -9.17, -0.0, -0.0, -0.0, -0.0, -0.0, -0.0, -0.0, -0.0, -0.0, -0.0, -0.0, -0.0, -0.0, -0.0, -0.0, -0.0, -0.0, -0.0, -0.0, -0.0, -2.49, -7.9, -7.59, -9.6, -9.75, -9.11, -9.75, -0.0, 2.71, 6.2, 2.6, 3.96, 2.82, 5.4, 10.79, 11.6, 12.96, 12.96, 13.15, 13.99, 16.76, 20.12, 26.99, 24.44, 18.98, 12.04, 8.8, 10.09, 12.14, 10.12, 3.14, 0.0, 0.72, 2.57, 0.0, -6.8, -4.66, 0.0, 4.26, 12.33, 12.8, 12.29, 12.27, 12.79, 12.79, 9.17, 9.17, 9.17, 9.42, 9.95, 9.95, 10.32, 10.32, 10.32, 9.8, 9.8, 9.8, 9.23, 9.62, 8.61, 8.39, 8.39, 7.74, 8.11, 7.78, 7.4, 6.36, 4.75, 2.0, 0.0, 0.0, -3.69, 0.0, 0.0, 0.0, 13.86, 13.86, -0.0, 9.17, 8.85, 5.6, 5.6, 5.6, 5.4, 8.53, 8.22, 8.22, 7.9, 7.27, 6.95, 7.59, 9.2, -0.0, -0.0, -0.0, -0.0, -0.0, -0.0, -0.0, -2.6, -8.22, -10.0, -10.73, -9.97, -9.2, -5.0, -0.0, 5.0, 4.48, 2.82, 3.96, 9.48, 11.87, 12.07, 12.96, 14.3, 14.3, 12.72, 12.03, 13.2, 16.01, 15.74, 11.8, 9.8, 8.37, 9.3, 9.97, 12.21, 11.5, 6.63, 1.83, -4.66, -15.43, -12.52, -2.43, 0.0, 3.58, 8.51, 10.61, 11.7, 11.58, 11.87, 11.87, 9.17, 9.17, 9.17, 9.17, 9.95, 9.95, 10.32, 10.32, 10.32, 10.32, 9.8, 9.8, 9.8, 9.23, 9.62, 8.77, 8.77, 8.77, 8.77, 8.51, 8.21, 7.63, 6.66, 6.54, 4.3, 7.76, 7.82, 6.8, 8.18, 13.19, 14.3, 13.86, 13.86, 11.99, 12.3, 10.41, 10.41, 10.41, 10.04, 10.04, 9.67, 9.67, 7.9, 8.53, 8.53, 9.2, 8.4, 8.18, 9.2, 7.27, -0.0, -0.0, -3.25, -2.49, -2.1, -2.6, -8.53, -10.4, -10.41, -10.0, -6.2, -0.0, -0.0, -0.0, -0.0, 4.81, 8.31, 8.85, 11.62, 11.62, 13.86, 14.75, 13.86, 12.33, 10.77, 12.26, 10.49, 5.52, 8.4, 10.87, 9.77, 8.23, 10.41, 10.6, 12.14, 11.99, 13.01, 13.19, 0.0, 0.0, 2.09, 5.34, 7.49, 8.39, 9.62, 10.97, 11.7, 11.7, 9.68, 9.68, 9.68, 9.68, 9.95, 9.95, 10.43, 10.8, 10.32, 10.32, 10.32, 10.32, 9.8, 9.8, 9.62, 9.37, 9.37, 9.37, 8.77, 8.93, 8.7, 8.43, 9.39, 9.2, 9.61, 9.89, 10.75, 11.87, 11.8, 13.19, 13.88, 14.3, 13.86, 13.01, 12.58, 11.2, 11.2, 11.2, 10.8, 9.66, 9.66, 9.3, 9.3, 8.58, 8.94, 9.67, 9.3, 9.55, 9.2, 9.3, 7.9, 7.27, -0.0, -0.0, -0.0, -0.0, -0.0, -6.2, -8.22, -9.3, -5.95, -3.53, -0.0, -0.0, -0.0, -0.0, 1.9, 6.4, 3.53, 9.83, 10.73, 13.15, 15.61, 16.99, 15.54, 15.01, 14.8, 7.8, 3.01, 6.36, 13.13, 11.33, 9.17, 9.36, 10.04, 13.39, 13.53, 14.03, 12.81, 10.43, 10.43, 13.99, 15.18, 8.97, 9.47, 10.89, 12.33, 12.33, 9.68, 9.68, 9.68, 9.68, 9.68, 9.95, 10.43, 10.8, 10.51, 10.51, 10.32, 10.32, 10.32, 10.19, 10.19, 9.92, 9.66, 9.37, 9.78, 9.17, 9.35, 9.54, 10.02, 9.91, 10.75, 11.44, 11.2, 12.81, 12.79, 13.99, 14.55, 14.3, 14.3, 13.59, 13.15, 12.04, 11.62, 11.62, 10.73, 10.35, 10.35, 10.35, 9.97, 9.58, 8.58, 10.04, 11.45, 9.96, 9.2, 8.94, 7.59, 7.27, 6.17, -0.0, -0.0, -0.0, -0.0, -0.0, -0.0, -3.53, -7.9, -10.4, -8.53, -3.68, -5.4, -5.2, -1.91, 3.14, 6.7, 7.27, 6.64, 7.9, 13.99, 21.43, 20.83, 17.35, 13.23, 11.52, 8.51, 3.23, 4.3, 10.66, 9.39, 9.31, 9.8, 11.44, 12.42, 13.57, 13.7, 13.7, 14.75, 10.43, 13.59, 14.53, 14.53, 13.8, 15.19, 15.19, 9.42, 9.42, 9.68, 9.68, 9.68, 9.68, 10.15, 10.51, 10.51, 10.51, 10.51, 11.19, 10.71, 10.71, 10.19, 9.92, 10.05, 10.05, 9.78, 10.47, 9.67, 10.11, 10.57, 10.75, 11.3, 11.36, 12.27, 12.13, 14.53, 13.44, 14.19, 14.3, 14.3, 13.86, 13.67, 13.23, 12.3, 12.3, 11.2, 11.2, 10.8, 10.8, 10.4, 9.97, 9.58, 10.38, 10.38, 9.96, 8.58, 8.94, 7.59, 7.27, 6.44, 4.8, 4.6, -0.0, 2.19, 2.19, 1.76, -0.0, -5.4, -10.4, -8.22, -3.53, -2.82, -5.0, -3.25, -0.0, 8.85, 8.53, 6.17, 6.44, 11.53, 18.05, 28.49, 20.07, 12.79, 5.2, 8.31, 13.96, 12.96, 14.88, 16.12, 14.84, 12.73, 11.38, 11.63, 12.56, 13.39, 12.87, 13.86, 10.12, 13.19, 14.75, 14.9, 15.65, 16.09, 16.09, 9.42, 9.42, 9.42, 9.68, 9.68, 9.68, 10.15, 10.51, 10.94, 10.51, 10.51, 10.89, 11.19, 10.71, 10.71, 10.83, 10.83, 10.95, 10.95, 10.95, 10.61, 11.06, 11.2, 11.25, 11.76, 11.93, 12.65, 12.79, 13.27, 14.9, 13.33, 13.86, 13.86, 13.86, 13.86, 13.72, 13.28, 12.89, 12.46, 12.04, 11.2, 11.2, 10.8, 11.03, 10.6, 10.6, 10.38, 9.96, 9.6, 9.6, 7.27, 7.27, 7.9, 5.95, 5.7, 5.95, 5.95, 2.6, 2.02, 2.1, -0.0, -0.0, -0.0, -0.0, -0.0, -2.71, -3.39, -0.0, 5.2, 9.17, 8.53, 7.9, 11.28, 15.97, 28.16, 24.1, 18.33, 6.6, 9.8, 14.55, 15.99, 16.99, 17.88, 17.88, 16.99, 15.84, 14.07, 12.45, 13.15, 12.72, 12.96, 13.41, 13.86, 14.3, 14.3, 14.9, 15.2, 15.2, 9.42, 9.42, 9.42, 9.42, 9.68, 9.68, 10.15, 10.51, 10.94, 10.94, 10.94, 10.89, 10.89, 11.19, 10.83, 10.83, 11.38, 11.38, 11.79, 11.47, 11.5, 11.17, 11.6, 11.68, 11.8, 12.74, 12.56, 13.02, 13.86, 14.03, 13.34, 13.33, 13.41, 13.86, 13.86, 13.75, 13.75, 13.72, 12.89, 12.46, 12.46, 12.04, 12.04, 11.45, 11.03, 10.6, 10.6, 9.96, 9.96, 9.6, 9.6, 9.3, 8.93, 7.27, 5.7, 5.7, 5.7, 5.46, 4.6, 3.98, -0.0, -0.0, -0.0, -0.0, -0.0, -0.0, -0.0, -0.0, -0.0, 5.6, 7.51, 8.85, 12.14, 15.11, 23.09, 25.93, 21.53, 18.41, 17.02, 17.35, 16.99, 16.94, 16.94, 16.94, 16.93, 15.93, 15.91, 14.81, 14.19, 13.41, 12.52, 12.52, 12.52, 12.72, 13.01, 14.75, 15.2, 15.2, 9.42, 9.42, 9.42, 9.88, 9.88, 10.15, 10.51, 10.51, 10.94, 10.94, 11.31, 11.31, 11.31, 11.59, 11.29, 11.7, 11.38, 11.79, 11.79, 12.22, 11.88, 11.95, 12.05, 12.05, 12.56, 12.99, 12.79, 13.2, 13.44, 13.8, 14.07, 13.79, 13.34, 13.41, 13.41, 13.86, 13.75, 13.75, 13.31, 13.31, 13.31, 12.83, 12.39, 11.61, 11.61, 11.46, 11.02, 10.38, 10.38, 9.96, 9.6, 10.0, 9.6, 8.55, 8.93, 8.55, 6.95, 6.95, 4.4, 4.6, 1.93, -0.0, -3.39, -0.0, -0.0, -0.0, -0.0, -0.0, -0.0, 3.82, 7.51, 9.8, 13.28, 15.65, 19.6, 21.46, 20.16, 17.82, 19.25, 18.89, 17.43, 16.82, 15.25, 14.53, 15.25, 14.5, 14.64, 14.68, 13.41, 12.52, 12.52, 12.52, 12.52, 12.14, 11.6, 10.37, 13.7, 13.7, 9.16, 9.16, 9.88, 9.88, 9.88, 9.88, 10.51, 10.51, 10.94, 10.94, 11.31, 11.31, 11.31, 11.7, 11.7, 11.7, 11.79, 11.79, 12.22, 12.22, 12.3, 11.95, 12.37, 12.41, 12.56, 12.99, 12.99, 13.2, 13.57, 13.88, 14.07, 14.25, 13.8, 13.41, 13.41, 13.41, 13.41, 13.41, 13.41, 13.41, 13.41, 12.86, 12.83, 12.39, 11.95, 11.95, 11.46, 11.46, 10.96, 10.38, 9.96, 9.96, 9.6, 9.6, 9.2, 7.87, 6.95, 6.95, 5.9, 4.6, 3.82, -0.0, -4.8, -4.6, -0.0, -0.0, -7.27, -4.8, -0.0, -0.0, 5.8, 9.17, 14.53, 15.96, 18.96, 17.43, 17.35, 19.08, 21.04, 21.87, 20.08, 16.17, 13.57, 11.92, 12.72, 12.83, 12.83, 12.52, 12.52, 12.96, 12.96, 12.96, 12.96, 12.58, 11.2, 10.79, 11.88, 11.88, 9.61, 9.61, 9.88, 9.88, 9.88, 10.23, 10.51, 10.51, 10.51, 10.94, 11.31, 11.31, 11.7, 11.7, 12.09, 12.09, 11.79, 11.79, 12.22, 12.22, 12.3, 12.37, 12.37, 12.41, 12.81, 12.99, 12.99, 13.35, 13.57, 13.88, 14.11, 14.11, 14.25, 13.86, 13.86, 13.41, 13.41, 13.41, 13.41, 13.41, 13.41, 12.96, 12.52, 12.96, 11.06, 11.95, 11.95, 11.46, 11.46, 10.96, 10.96, 9.96, 9.96, 9.6, 8.8, 7.87, 6.95, 6.64, 5.9, 5.9, 4.4, 2.28, -0.0, -0.0, -0.0, -0.0, -0.0, -4.6, -0.0, -0.0, 5.2, 9.17, 11.06, 15.62, 19.39, 17.59, 13.72, 16.27, 21.6, 21.54, 19.08, 16.99, 14.75, 12.04, 11.71, 12.96, 13.41, 12.96, 12.96, 12.96, 12.96, 13.41, 13.41, 13.41, 12.58, 11.6, 10.73, 10.73, 9.61, 9.61, 9.61, 9.88, 10.23, 10.23, 10.23, 10.23, 10.94, 11.31, 11.31, 11.38, 11.38, 11.76, 12.09, 11.76, 12.16, 12.57, 12.57, 12.98, 12.62, 13.02, 12.79, 12.41, 12.81, 12.79, 13.15, 13.35, 13.35, 13.67, 13.88, 14.11, 14.26, 14.26, 13.86, 13.86, 13.41, 13.41, 13.41, 13.41, 13.41, 12.96, 12.52, 12.96, 11.18, 12.07, 12.07, 12.07, 11.62, 11.18, 10.96, 10.52, 9.96, 9.55, 8.8, 8.8, 7.51, 6.64, 6.64, 5.9, 5.9, 4.2, -0.0, -0.0, -0.0, -0.0, -0.0, -0.0, -0.0, -0.0, -0.0, 5.8, 8.18, 13.39, 20.85, 20.39, 14.47, 14.42, 17.32, 17.75, 16.0, 14.99, 15.14, 14.75, 13.86, 13.41, 13.86, 13.86, 13.41, 13.41, 13.41, 13.41, 13.41, 13.41, 13.23, 12.04, 10.73, 10.73, 9.61, 9.61, 9.61, 9.95, 10.23, 10.23, 10.23, 10.65, 11.01, 11.01, 11.01, 11.38, 11.7, 12.09, 12.45, 12.84, 12.84, 12.87, 12.98, 12.62, 13.02, 12.65, 13.03, 13.02, 13.02, 12.79, 13.15, 13.47, 13.47, 13.67, 13.94, 14.14, 14.14, 14.26, 14.26, 14.25, 13.8, 13.34, 13.34, 13.41, 13.41, 12.96, 12.96, 12.07, 12.96, 11.62, 12.07, 12.07, 11.62, 11.18, 11.18, 10.52, 10.52, 9.55, 9.13, 8.8, 8.4, 7.15, 6.64, 6.64, 5.9, 5.63, 3.4, -0.0, -0.0, -0.0, -0.0, -0.0, -0.0, -0.0, -0.0, 5.2, 6.2, 8.68, 15.36, 20.6, 20.56, 15.78, 13.88, 10.65, 10.47, 12.72, 13.33, 13.41, 13.86, 14.3, 14.3, 14.75, 14.3, 13.86, 13.72, 13.72, 13.86, 13.75, 13.31, 12.72, 11.12, 10.73, 9.61, 9.61, 9.95, 9.95, 9.95, 10.35, 10.65, 11.01, 11.01, 11.01, 11.38, 11.7, 11.7, 12.09, 12.09, 12.84, 12.84, 12.87, 13.26, 12.89, 12.89, 13.25, 12.86, 13.02, 13.37, 12.96, 13.28, 13.47, 13.47, 13.75, 13.94, 13.5, 14.14, 14.14, 14.11, 14.11, 13.8, 13.79, 13.79, 13.77, 13.41, 12.96, 12.96, 12.52, 12.52, 13.41, 11.62, 11.18, 10.73, 10.73, 10.73, 10.08, 10.08, 10.08, 9.64, 9.21, 8.72, 8.0, 7.15, 7.51, 7.51, 6.64, 7.59, 6.95, -0.0, 7.27, -0.0, -0.0, -3.25, -0.0, -0.0, 5.2, 5.8, 6.2, 8.68, 16.06, 26.07, 25.87, 17.46, 13.86, 14.75, 14.75, 15.2, 16.09, 16.09, 15.2, 14.6, 14.6, 14.6, 14.16, 13.75, 13.75, 13.32, 13.44, 13.09, 12.58, 12.3, 12.3, 9.61, 9.61, 9.95, 9.95, 10.35, 10.7, 11.01, 11.01, 11.01, 11.38, 11.7, 11.7, 12.09, 12.09, 12.09, 12.84, 12.84, 12.87, 12.87, 13.27, 12.89, 13.25, 12.86, 13.19, 13.52, 13.37, 13.28, 13.28, 13.47, 13.47, 13.75, 13.67, 13.94, 13.94, 13.67, 14.11, 14.07, 14.25, 14.23, 13.79, 13.86, 13.41, 12.96, 12.96, 12.96, 12.96, 12.07, 10.73, 10.2, 10.2, 10.18, 9.46, 9.7, 9.7, 9.26, 9.26, 8.3, 7.67, 7.67, 7.67, 8.05, 7.15, 6.79, 6.95, 6.95, 6.95, 4.6, -0.0, -0.0, -0.0, -0.0, 5.0, -0.0, 3.96, 10.43, 16.09, 21.74, 31.42, 26.72, 18.89, 15.62, 15.45, 16.85, 17.71, 17.38, 16.41, 13.56, 13.15, 13.56, 13.15, 13.15, 13.15, 12.74, 11.99, 12.14, 12.14, 12.14, 12.14, 9.66, 9.66, 9.95, 10.35, 10.7, 10.7, 11.01, 11.38, 11.74, 11.74, 12.07, 12.45, 12.45, 12.45, 12.45, 12.84, 12.49, 12.87, 12.87, 12.89, 12.89, 12.86, 12.86, 13.19, 13.19, 13.52, 12.96, 13.28, 13.15, 13.47, 13.35, 13.67, 13.67, 13.88, 13.44, 14.11, 14.07, 14.25, 14.25, 14.23, 13.79, 13.41, 13.41, 12.96, 12.96, 12.96, 12.52, 11.62, 10.65, 10.2, 9.54, 9.54, 9.32, 9.29, 9.29, 8.85, 8.48, 8.06, 7.6, 8.0, 8.3, 8.3, 8.3, 9.6, 6.95, 6.95, 7.27, -0.0, -0.0, -0.0, -0.0, -0.0, -0.0, 4.1, 11.99, 15.2, 17.88, 23.42, 28.88, 23.12, 19.31, 19.92, 21.15, 20.34, 18.87, 16.93, 14.84, 11.52, 11.9, 12.42, 12.39, 12.03, 12.03, 11.64, 11.6, 11.6, 11.6, 11.6, 9.66, 9.66, 9.66, 10.35, 10.7, 10.7, 10.7, 11.06, 11.74, 11.74, 12.11, 12.11, 12.45, 12.11, 12.49, 12.49, 12.49, 12.52, 12.52, 12.52, 12.51, 12.86, 12.86, 13.19, 13.19, 12.96, 12.96, 13.28, 13.15, 13.47, 13.35, 13.67, 13.67, 13.94, 13.88, 14.11, 14.11, 14.11, 14.25, 14.25, 13.79, 13.79, 13.34, 12.96, 12.96, 12.52, 12.52, 12.07, 11.62, 11.18, 10.2, 9.76, 9.76, 9.32, 9.29, 8.41, 8.06, 7.63, 7.63, 8.06, 8.06, 8.48, 8.3, 7.89, 9.6, 6.95, 6.95, 4.2, -0.0, -0.0, -0.0, -0.0, -0.0, -0.0, 11.99, 14.3, 16.09, 18.03, 21.28, 22.19, 22.34, 23.44, 22.76, 21.78, 18.75, 17.07, 16.9, 12.57, 9.73, 9.8, 11.9, 10.41, 9.96, 10.55, 10.55, 10.87, 10.87, 10.87, 9.66, 9.66, 9.66, 10.4, 10.7, 10.4, 11.06, 11.06, 11.41, 12.11, 12.11, 12.11, 12.11, 12.49, 12.49, 12.14, 12.52, 12.52, 12.52, 12.52, 12.89, 12.86, 12.86, 13.19, 12.62, 12.96, 12.96, 13.28, 13.15, 13.47, 13.47, 13.67, 13.67, 13.94, 13.94, 14.11, 14.11, 14.11, 14.26, 14.25, 13.8, 13.34, 13.34, 12.9, 12.9, 12.44, 12.07, 12.07, 11.62, 11.62, 11.18, 10.73, 10.28, 9.83, 9.83, 8.85, 8.82, 8.38, 7.63, 7.63, 8.06, 8.06, 8.48, 8.72, 8.0, 9.2, 6.95, 6.32, -0.0, -0.0, -0.0, -0.0, -0.0, -0.0, 13.41, 13.86, 15.2, 15.71, 16.34, 15.99, 19.57, 25.9, 25.59, 20.96, 19.36, 18.13, 17.78, 17.33, 8.05, 7.59, 10.73, 9.66, 9.77, 9.62, 10.41, 10.04, 10.04, 10.04, 9.66, 9.66, 10.4, 10.4, 10.4, 10.4, 10.75, 11.06, 11.41, 11.77, 11.77, 11.77, 12.14, 12.14, 12.14, 12.52, 12.52, 12.16, 12.52, 12.52, 12.89, 12.86, 12.47, 12.79, 12.62, 12.96, 12.96, 13.28, 13.15, 13.47, 13.47, 13.75, 13.67, 13.67, 13.94, 13.94, 14.14, 14.11, 14.11, 13.67, 13.63, 13.19, 13.34, 12.9, 12.9, 12.44, 12.0, 12.0, 11.62, 11.62, 11.18, 10.73, 10.73, 10.28, 9.83, 9.83, 8.94, 8.38, 7.94, 7.94, 7.63, 8.06, 8.06, 8.48, 8.3, 8.8, 6.64, 6.64, -0.0, -0.0, -3.25, -0.0, -0.0, 12.52, 12.96, 13.41, 14.3, 14.61, 14.39, 13.23, 14.82, 21.81, 25.71, 22.62, 20.57, 19.08, 17.53, 15.65, 6.6, 5.8, 11.2, 10.41, 9.66, 8.53, 9.66, 10.8, 10.8, 10.8, 10.4, 10.4, 10.4, 10.09, 10.4, 10.75, 10.75, 10.75, 11.09, 11.77, 11.77, 11.77, 12.14, 12.14, 12.14, 12.16, 12.16, 12.52, 12.52, 12.89, 12.51, 12.86, 12.47, 12.79, 12.79, 13.11, 12.96, 13.28, 13.28, 13.47, 13.47, 13.47, 13.75, 13.75, 13.94, 13.94, 13.94, 14.11, 13.67, 13.67, 13.19, 13.19, 12.71, 12.71, 12.9, 12.45, 12.0, 12.0, 11.55, 11.53, 11.18, 11.18, 10.73, 10.73, 10.28, 9.83, 9.39, 8.94, 8.49, 7.94, 7.5, 7.94, 8.06, 8.48, 8.3, 9.2, 9.2, 6.95, 4.4, -0.0, -0.0, -0.0, 8.22, 12.07, 12.52, 13.41, 13.44, 13.28, 12.81, 12.73, 12.71, 16.48, 20.6, 22.23, 23.21, 20.36, 16.71, 12.96, 0.0, 12.52, 12.52, 12.07, 9.67, 7.9, 7.9, 10.73, 10.73, 10.73, 10.09, 10.09, 10.09, 10.09, 10.43, 10.43, 10.76, 11.09, 11.09, 11.44, 11.44, 11.44, 11.8, 11.8, 11.8, 12.16, 12.16, 12.52, 12.52, 12.51, 12.51, 12.47, 12.79, 12.79, 13.11, 13.11, 13.11, 13.28, 13.28, 13.57, 13.47, 13.89, 14.18, 14.18, 13.67, 13.94, 13.94, 13.5, 13.44, 13.01, 13.19, 12.75, 12.75, 12.71, 12.27, 12.45, 12.0, 12.0, 11.55, 11.55, 11.09, 11.18, 11.18, 10.73, 10.28, 10.28, 9.83, 9.39, 8.49, 8.05, 7.94, 7.5, 7.94, 8.06, 7.89, 8.48, 8.8, 8.8, 5.46, 3.11, -0.0, -0.0, 5.0, 10.8, 11.2, 11.6, 12.72, 11.99, 12.27, 10.43, 12.02, 11.7, 13.46, 19.68, 25.33, 22.05, 0.0, -9.2, -11.62, 12.52, 12.07, 11.62, 9.6, 7.59, 9.2, 9.83, 9.83, 9.83, 10.09, 10.09, 10.09, 10.43, 10.76, 10.76, 10.76, 10.76, 11.1, 11.44, 11.44, 11.44, 11.8, 11.8, 11.8, 12.78, 12.16, 12.52, 12.16, 12.51, 12.13, 12.47, 12.79, 12.79, 13.11, 13.11, 13.11, 13.39, 13.28, 13.28, 13.99, 13.89, 13.89, 14.18, 13.75, 13.67, 13.67, 13.5, 13.44, 13.01, 13.01, 12.75, 12.75, 12.27, 12.27, 12.44, 12.0, 12.0, 11.55, 11.55, 11.55, 11.18, 11.18, 10.73, 10.73, 10.28, 9.83, 9.39, 8.94, 8.49, 8.05, 7.6, 7.5, 7.94, 7.63, 8.48, 8.4, 9.2, 4.6, 4.6, 7.27, 6.95, 9.83, 7.9, 10.8, 12.52, 12.96, 12.3, 9.8, 10.43, 10.43, 9.44, 10.18, 16.48, 26.54, 19.67, 0.0, -9.6, -9.6, 11.18, 11.62, 11.03, 7.9, 7.59, 4.6, 9.83, 9.83, 9.83, 10.09, 9.78, 9.78, 10.12, 10.44, 10.44, 10.44, 11.1, 11.1, 11.1, 11.1, 11.45, 11.8, 12.14, 12.78, 12.42, 12.42, 12.16, 12.16, 12.13, 12.13, 12.47, 12.47, 12.79, 12.79, 13.11, 13.11, 13.11, 13.7, 13.7, 13.7, 13.89, 13.89, 13.89, 13.75, 13.67, 13.67, 13.25, 13.44, 13.01, 13.01, 12.51, 12.75, 12.27, 12.27, 11.84, 12.0, 12.0, 11.55, 11.55, 11.55, 11.53, 11.09, 10.73, 10.73, 10.28, 9.83, 9.39, 8.94, 8.94, 8.49, 8.05, 7.6, 7.5, 7.45, 7.01, 8.4, 6.64, 6.95, 7.27, 9.6, 9.6, 10.28, 0.0, 11.18, 11.62, 12.52, 11.6, 9.48, 9.8, 10.12, 8.94, 10.12, 16.27, 27.27, 21.9, 14.51, -8.53, 0.0, 10.6, 10.38, 8.94, 6.45, 5.0, 0.0, -9.83, -9.83, -9.83, 9.78, 9.78, 9.78, 10.44, 10.44, 10.44, 10.77, 10.77, 10.77, 11.1, 11.8, 11.8, 12.14, 12.07, 12.42, 12.42, 12.05, 12.39, 11.79, 11.79, 12.13, 12.13, 12.47, 12.79, 12.79, 12.79, 13.11, 13.52, 13.37, 13.7, 13.7, 13.56, 13.89, 13.89, 13.47, 13.67, 13.25, 13.25, 12.72, 13.01, 12.58, 12.51, 12.31, 12.27, 12.27, 11.84, 11.78, 11.78, 11.78, 11.35, 11.55, 11.53, 11.53, 11.09, 10.65, 10.28, 9.83, 9.39, 8.94, 8.94, 8.49, 8.05, 8.05, 7.6, 7.6, 7.45, 9.39, 9.39, 9.83, 9.39, 9.83, 10.28, 10.73, 10.28, 7.27, 10.0, 12.07, 12.52, 11.6, 9.17, 9.48, 7.13, 10.43, 27.22, 27.69, 23.25, 17.97, 14.75, 0.0, 5.4, 9.67, 9.17, 2.82, 0.0, 0.0, -9.2, -9.2, -9.2, 9.48, 9.48, 9.8, 10.11, 10.44, 10.44, 10.77, 10.77, 11.1, 11.44, 11.8, 11.8, 11.8, 12.07, 12.42, 12.05, 12.05, 12.39, 12.01, 11.79, 12.13, 12.13, 12.47, 12.47, 12.79, 13.19, 13.19, 13.52, 13.37, 13.37, 13.7, 13.56, 13.56, 13.47, 13.47, 13.35, 13.25, 13.25, 12.72, 13.01, 12.51, 12.51, 12.08, 11.99, 12.27, 11.84, 11.84, 11.78, 11.78, 11.78, 11.78, 11.71, 11.53, 11.09, 10.65, 10.18, 9.74, 9.39, 8.94, 8.94, 8.49, 8.05, 7.6, 7.6, 7.6, 7.6, 7.6, 7.6, 10.28, 10.28, 10.28, 7.27, 10.28, 10.28, 10.28, 10.73, 11.62, 10.8, 8.85, 5.6, 4.1, 6.2, 16.75, 25.48, 26.25, 21.34, 7.8, -9.48, 0.0, 3.68, 6.2, 5.75, 0.0, -3.53, -3.39, -5.7, -5.7, -5.7, 9.48, 9.48, 10.11, 10.11, 10.11, 10.77, 10.77, 11.1, 11.1, 11.1, 11.45, 11.8, 11.45, 12.05, 12.05, 12.05, 12.05, 12.39, 12.39, 12.01, 12.51, 12.51, 12.86, 12.86, 13.19, 13.19, 13.59, 13.92, 13.37, 13.37, 13.7, 13.56, 13.15, 13.15, 13.35, 12.93, 12.93, 13.15, 12.72, 12.72, 12.51, 12.51, 12.08, 12.08, 11.99, 11.56, 11.84, 11.84, 11.84, 11.78, 11.78, 11.78, 11.28, 11.09, 10.65, 10.2, 9.74, 9.29, 8.94, 8.94, 8.49, 8.05, 7.6, 7.6, 8.05, 8.05, 8.05, 8.05, 7.27, 0.0, 0.0, 4.8, 7.59, 7.27, 9.83, 9.83, 10.73, 8.22, 5.6, 5.6, -0.0, -0.0, 14.66, 21.98, 26.66, 19.77, -0.0, -5.4, 10.73, 0.0, 0.0, -3.68, -10.4, -7.9, -6.2, -6.95, -6.95, -6.95, 9.8, 9.8, 10.11, 10.11, 10.44, 10.77, 10.77, 10.77, 11.1, 11.45, 11.45, 11.45, 11.72, 12.05, 12.05, 12.05, 12.39, 12.39, 12.39, 12.39, 12.51, 12.51, 12.86, 13.25, 13.59, 13.59, 13.59, 13.52, 13.37, 13.37, 13.37, 13.15, 13.15, 13.15, 12.99, 12.93, 12.93, 12.38, 12.72, 12.3, 12.3, 12.51, 12.08, 12.08, 12.08, 11.56, 11.84, 11.84, 11.84, 11.84, 11.78, 11.78, 11.35, 10.84, 10.65, 10.2, 9.76, 9.32, 9.29, 8.94, 8.49, 8.05, 8.05, 8.05, 8.05, 8.05, 8.49, 8.49, 8.06, 7.59, 4.8, 0.0, 0.0, 7.27, 9.2, 7.27, 7.27, 11.18, 8.22, 8.53, -0.0, 6.4, 17.35, 20.8, 28.61, 24.59, 5.65, -7.36, -8.94, -10.0, -9.08, -11.4, -11.62, -9.67, -8.94, -9.2, -9.2, -9.2, 9.8, 9.8, 10.11, 10.11, 10.11, 10.43, 10.43, 10.77, 10.77, 11.1, 11.1, 11.1, 11.72, 12.05, 12.05, 12.05, 12.39, 12.76, 12.76, 12.76, 12.89, 12.89, 12.89, 13.25, 13.25, 13.59, 13.59, 13.19, 13.37, 13.37, 12.96, 12.79, 13.15, 13.15, 12.58, 12.58, 12.93, 12.38, 12.38, 12.3, 12.3, 12.3, 12.08, 12.08, 12.08, 12.08, 11.88, 11.84, 11.84, 11.84, 11.84, 11.4, 10.91, 10.91, 10.66, 10.2, 9.76, 9.76, 9.32, 8.87, 8.85, 8.49, 8.05, 8.05, 8.05, 8.49, 8.49, 8.38, 8.33, 9.2, 7.27, 7.59, 7.27, 6.95, 8.8, 8.8, 6.95, 7.27, 10.73, 11.62, -0.0, 13.86, 15.65, 18.96, 25.51, 27.18, 19.22, -10.19, -11.12, -11.18, -11.18, -11.18, -11.21, -9.67, -8.94, -10.0, -10.0, -10.0, 10.11, 10.11, 10.11, 10.11, 10.11, 10.43, 10.43, 10.43, 10.76, 11.1, 11.1, 11.72, 12.05, 12.05, 12.42, 12.42, 12.76, 12.76, 12.76, 12.52, 12.89, 12.89, 12.89, 13.25, 12.86, 13.59, 13.19, 13.02, 12.62, 12.96, 12.96, 12.79, 12.79, 12.74, 12.58, 12.58, 12.52, 12.52, 12.38, 12.3, 12.3, 12.3, 12.14, 12.08, 12.08, 12.08, 11.64, 11.88, 11.84, 11.84, 11.84, 11.4, 10.96, 10.91, 10.47, 10.22, 9.77, 9.76, 9.32, 8.87, 8.87, 8.41, 7.97, 8.41, 8.41, 8.38, 8.82, 8.82, 8.82, 9.2, 7.27, 4.6, 6.95, 6.64, 9.39, 9.39, 9.39, 9.39, 10.28, 10.4, 12.52, 13.41, 12.27, 16.54, 22.99, 27.47, 20.51, 18.33, -15.61, -13.86, -12.3, -11.92, -10.12, -7.78, -10.01, -10.01, -10.01, -10.01, 9.78, 9.78, 9.78, 10.11, 10.11, 10.43, 10.43, 10.43, 11.01, 11.36, 11.36, 11.72, 12.05, 12.42, 12.42, 12.42, 12.76, 12.76, 12.52, 12.52, 12.89, 12.51, 12.89, 13.25, 12.86, 12.86, 13.19, 12.62, 12.62, 12.96, 12.96, 12.79, 12.79, 12.74, 12.58, 12.18, 12.52, 12.52, 11.97, 12.3, 12.3, 12.3, 12.3, 12.14, 12.08, 12.08, 11.64, 11.64, 11.64, 11.84, 11.4, 10.96, 10.96, 10.52, 10.52, 10.04, 10.04, 9.77, 9.32, 8.87, 8.43, 8.43, 8.43, 8.41, 8.41, 8.38, 8.82, 8.82, 8.82, 8.48, 7.51, 7.9, 7.27, 6.64, 8.4, 9.39, 9.39, 9.83, 10.28, 11.03, 12.52, 11.99, 13.19, 15.69, 22.21, 27.24, 22.16, 18.91, 0.0, -15.69, -14.94, -12.65, -9.48, -6.9, -5.8, -4.1, -4.1, -4.1, 9.78, 9.78, 9.78, 9.78, 10.09, 10.43, 10.43, 10.76, 11.01, 11.36, 11.36, 12.05, 12.05, 12.42, 12.42, 12.42, 12.42, 12.52, 12.52, 12.52, 12.51, 12.51, 12.89, 12.89, 12.86, 12.86, 12.79, 12.62, 12.62, 12.96, 12.96, 12.79, 12.39, 12.74, 12.74, 12.18, 12.52, 12.1, 12.1, 11.97, 12.3, 12.3, 12.3, 12.3, 12.14, 12.08, 11.64, 11.64, 11.64, 11.64, 11.21, 10.7, 10.96, 10.52, 10.08, 10.08, 10.04, 9.6, 9.16, 8.73, 8.87, 8.43, 8.43, 8.43, 8.41, 8.41, 8.48, 8.48, 8.48, 8.6, 8.91, 7.9, 7.27, 4.8, 6.64, 8.8, 9.33, 9.83, 10.28, 10.73, 12.07, 12.58, 13.28, 14.38, 20.72, 27.5, 21.86, 20.56, 18.59, 15.62, -5.65, -9.92, -8.85, -2.54, 0.0, 12.3, 12.3, 12.3, 9.78, 9.78, 9.78, 9.78, 10.09, 10.09, 10.09, 10.76, 11.01, 11.36, 11.36, 12.05, 12.05, 12.05, 12.05, 12.05, 11.8, 12.16, 12.16, 12.16, 12.16, 12.51, 12.51, 12.51, 12.86, 12.47, 12.79, 12.62, 12.62, 12.62, 12.96, 12.39, 12.39, 12.74, 12.33, 12.33, 12.18, 12.1, 12.1, 12.1, 11.97, 12.3, 12.3, 11.87, 11.87, 11.87, 11.64, 11.64, 11.64, 11.21, 11.21, 10.7, 10.7, 10.28, 10.52, 10.08, 10.08, 9.6, 9.16, 9.16, 8.73, 8.24, 8.24, 8.24, 8.43, 8.43, 8.6, 8.48, 8.48, 8.6, 9.03, 8.91, 8.05, 8.22, 6.64, 6.95, 6.95, 9.83, 10.28, 10.73, 11.62, 12.71, 12.87, 13.56, 18.47, 25.03, 24.14, 20.97, 20.56, 20.12, 18.85, 9.67, 5.09, 11.9, 12.96, 12.96, 12.96, 12.96, 9.78, 9.78, 9.78, 9.78, 10.09, 10.09, 10.09, 10.76, 11.01, 11.36, 11.36, 12.05, 12.05, 12.05, 12.05, 12.05, 11.8, 12.16, 12.16, 12.16, 12.16, 12.51, 12.51, 12.51, 12.86, 12.47, 12.79, 12.62, 12.62, 12.62, 12.96, 12.39, 12.39, 12.74, 12.33, 12.33, 12.18, 12.1, 12.1, 12.1, 11.97, 12.3, 12.3, 11.87, 11.87, 11.87, 11.64, 11.64, 11.64, 11.21, 11.21, 10.7, 10.7, 10.28, 10.52, 10.08, 10.08, 9.6, 9.16, 9.16, 8.73, 8.24, 8.24, 8.24, 8.43, 8.43, 8.6, 8.48, 8.48, 8.6, 9.03, 8.91, 8.05, 8.22, 6.64, 6.95, 8.8, 9.83, 10.28, 10.73, 11.62, 12.35, 13.23, 13.75, 15.99, 20.12, 23.69, 20.97, 20.85, 20.8, 20.05, 19.22, 17.43, 15.65, 12.96, 12.79, 12.79, 12.79]}, {"header": {"dx": 0.06612293990616946, "dy": 0.0552356325346848, "nx": 98, "ny": 59, "la1": 35.046912555036876, "la2": 31.78801023549047, "lo1": -121.43107172385933, "lo2": -114.95102361305473, "refTime": "2026041713", "parameterCategory": 1, "parameterNumber": 3}, "data": [-17.89, -18.19, -18.33, -17.88, -17.26, -16.37, -15.93, -15.43, -13.59, -8.18, -6.4, -6.0, -8.31, -6.67, -5.4, -4.58, -4.08, -3.07, -1.91, -0.0, -0.0, 2.54, 5.2, 6.98, 7.9, 9.3, 8.53, 10.41, 10.8, 12.07, 12.52, 11.6, 8.85, 5.0, 0.0, 0.0, 9.39, 9.39, 9.11, 9.2, 5.9, 2.19, -0.0, -0.0, -3.07, -9.43, -13.96, -19.55, -15.99, -12.39, -13.57, -13.7, -14.11, -14.53, -13.42, -12.52, -12.52, -12.52, -13.99, -13.99, -15.18, -14.84, -15.2, -15.2, -10.75, -4.95, 0.0, 0.0, 3.16, 5.09, 7.2, 4.3, 4.3, 2.57, 2.21, 1.94, 2.09, 0.0, 0.0, -2.09, -4.52, -2.2, -4.81, -5.6, -5.4, -5.2, 0.0, 0.0, 0.0, -3.07, -8.44, -12.79, -14.64, -15.2, -14.66, -14.23, -13.15, -12.81, -17.56, -17.78, -18.19, -17.88, -17.43, -16.99, -16.09, -15.49, -13.59, -8.18, -5.15, -8.18, -9.48, -8.85, -5.8, -5.4, -4.8, -3.82, -1.98, -1.64, -0.0, -0.0, 2.54, 7.78, 7.59, 8.94, 8.22, 8.53, 8.53, 5.6, 10.12, 13.86, 12.52, 0.0, 0.0, 0.0, 0.0, 8.94, 8.91, 8.55, 5.6, -0.0, -0.0, -5.64, -12.01, -16.44, -19.57, -15.45, -12.03, -13.56, -13.19, -13.59, -14.42, -13.59, -13.59, -13.42, -12.52, -12.16, -13.02, -14.84, -14.84, -15.2, -15.2, 0.0, 0.0, 0.0, 0.0, 3.16, 5.98, 8.28, 7.4, 7.2, 5.09, 2.15, 0.0, 0.0, 0.0, 0.0, 0.0, -2.09, -4.52, -2.2, -4.81, -5.6, -5.4, -5.2, 0.0, 0.0, 0.0, -3.07, -8.44, -12.79, -14.64, -15.2, -14.66, -14.23, -13.15, -12.81, -17.02, -17.39, -17.16, -17.35, -17.74, -17.43, -16.54, -16.09, -14.99, -13.19, -8.58, -9.17, -11.09, -12.3, -10.4, -0.0, -2.28, -3.19, -3.32, -2.13, -1.64, -2.06, -0.0, -0.0, 6.2, 6.44, 7.59, 7.59, 7.9, 3.68, -0.0, -0.0, -0.0, -0.0, 2.69, 4.0, 3.8, 6.32, 8.8, 8.22, -0.0, -2.43, -3.51, -10.58, -13.96, -15.17, -13.24, -10.91, -12.51, -13.59, -13.59, -14.23, -13.59, -13.03, -11.52, -10.75, -10.75, -11.06, -13.02, -15.65, -15.65, -15.2, 0.0, 0.0, 0.0, 0.0, 7.0, 8.68, 11.06, 12.57, 11.38, 10.3, 6.16, 1.89, 0.0, -3.58, -5.99, -1.68, -2.81, -5.18, -6.4, -5.28, -5.8, -6.21, -6.45, -2.82, 0.0, 0.0, -1.84, -5.08, -9.61, -10.76, -12.87, -13.59, -14.75, -13.44, -12.04, -12.27, -16.69, -16.39, -16.75, -16.74, -17.35, -17.3, -16.99, -16.54, -15.65, -14.47, -13.28, -12.39, -13.28, -11.62, -11.45, -8.22, -0.0, -1.98, -1.44, -0.0, -0.0, -0.0, -1.84, -1.39, -0.0, 3.14, 4.6, 6.95, 8.18, 3.53, -0.0, -0.0, 3.07, 8.05, 7.51, 6.44, 6.17, 8.93, 11.2, -0.0, -9.17, -9.89, -7.3, -8.97, -7.82, -8.66, -9.8, -11.9, -12.27, -12.81, -13.19, -13.2, -11.52, -8.85, -8.85, -8.85, -9.12, -11.06, -14.84, -15.65, -15.2, -10.75, 0.0, 14.75, 0.0, -0.0, 0.0, 11.06, 12.33, 14.3, 10.19, 7.0, 3.79, 2.89, 1.42, -1.53, -5.18, -8.06, -5.64, -7.34, -7.79, -8.59, -8.3, -6.97, -9.3, -8.22, 0.0, 0.0, -4.15, -8.4, -11.88, -12.01, -12.52, 0.0, -0.0, -6.0, -11.6, -12.27, -16.09, -15.72, -16.39, -16.34, -16.96, -17.35, -17.3, -16.99, -15.65, -15.2, -14.75, -13.86, -14.03, -12.04, -11.21, -10.8, -6.45, -0.0, 1.44, 1.5, 2.54, 2.45, 2.28, -0.0, 1.76, 2.37, 3.04, 8.53, 10.0, 10.28, 0.0, 5.0, 5.2, 5.6, 6.4, 8.58, 9.12, 9.8, 11.38, -17.43, -16.66, -9.12, -2.63, -2.72, -5.15, -8.31, -10.12, -10.12, -10.43, -10.75, -10.43, -10.12, -8.58, -6.6, -6.6, -3.58, -8.43, -11.06, -14.84, -15.2, -14.75, -14.3, 0.0, 10.43, -0.0, -7.4, -12.01, -14.79, -18.33, -20.12, -6.22, -3.51, 0.0, 0.0, 0.0, 0.0, -1.38, -6.4, -7.34, -6.51, -7.54, -9.96, -9.82, -9.58, -10.84, -11.4, -9.66, -7.14, -9.39, -12.03, -13.12, -12.22, -13.7, -11.99, -3.14, -7.44, -11.6, -12.27, -15.83, -16.09, -15.72, -15.99, -16.34, -16.96, -16.91, -16.86, -15.97, -15.65, -15.05, -14.3, -14.3, -12.71, -11.87, -11.21, -5.4, 2.37, 3.82, 3.82, 2.28, 6.7, 11.99, 13.41, 11.2, 5.4, 3.82, -0.0, -0.0, 0.0, 4.4, 10.28, 5.29, 2.33, 1.5, 1.96, 2.2, 3.36, 0.0, -13.88, -12.52, -11.44, -4.38, -2.81, -6.4, -12.27, -14.75, -14.3, -14.3, -10.12, -9.8, -9.8, -9.8, -6.4, -6.6, -8.18, -6.6, -6.6, -10.75, -13.19, -13.86, -13.41, -0.0, -0.0, -8.93, -14.13, -16.54, -16.05, -16.76, -20.12, -21.68, -19.08, -14.31, -9.32, -5.27, -2.72, -2.2, -4.1, -5.11, -5.27, -7.02, -8.22, -9.97, -11.03, -11.55, -11.57, -13.32, -14.57, -14.76, -14.88, -14.39, -13.99, -15.65, -7.78, -6.67, -11.5, -12.04, -12.27, -16.14, -15.83, -15.46, -15.33, -15.99, -16.34, -16.54, -17.02, -16.44, -15.55, -15.08, -13.86, -14.3, -12.96, -13.41, -10.4, -6.7, -0.0, 5.6, 10.8, 8.53, 9.48, -0.0, 0.0, 12.52, 0.0, 0.0, -10.8, -11.87, -7.59, 11.18, 8.18, 5.46, 2.28, 1.58, -0.0, -0.0, -0.0, -11.62, -8.55, -12.27, -11.12, -8.31, -9.73, -12.52, -13.03, -15.61, -15.2, -12.39, -13.86, -13.57, -13.44, -11.9, -8.18, -6.4, -7.69, -6.4, -0.0, -6.4, -12.39, -13.41, -0.0, -0.0, -7.2, -13.76, -15.36, -16.66, -15.87, -15.53, -17.88, -20.56, -19.67, -16.84, -15.9, -14.67, -12.63, -8.16, -4.24, -3.25, -6.42, -6.92, -9.17, -12.2, -14.03, -15.09, -16.8, -18.59, -19.08, -17.77, -16.84, -15.98, -17.37, -13.42, -6.0, -8.38, -11.6, -11.87, -12.79, -15.23, -14.88, -14.46, -15.09, -15.33, -15.99, -15.93, -16.12, -16.15, -15.27, -14.84, -13.86, -14.3, -12.72, -6.2, -8.53, -8.85, 0.0, 4.1, 6.94, 10.41, 12.52, 0.0, -13.86, -9.8, -8.53, -12.07, -11.2, -8.22, -3.53, -0.0, 2.82, 2.19, 2.1, -0.0, -0.0, -3.07, -5.75, -10.41, -9.67, -10.0, -12.07, -10.55, -10.94, -12.51, -13.97, -13.99, -15.78, -14.75, -14.3, -12.52, -13.41, -13.86, -9.8, -9.8, -0.0, 0.0, 0.0, 0.0, -12.96, -12.52, 0.0, -10.75, -11.06, -14.39, -16.48, -16.99, -15.34, -14.75, -15.65, -17.74, -18.24, -15.91, -15.51, -14.86, -14.1, -12.27, -8.05, -5.36, -6.78, -8.68, -10.04, -12.0, -14.47, -17.27, -19.61, -20.28, -18.76, -17.26, -16.15, -16.09, -15.27, -7.79, -7.69, -10.47, -12.04, -11.95, -12.86, -15.04, -14.7, -14.88, -14.46, -15.09, -15.99, -16.19, -15.77, -15.84, -15.41, -14.56, -13.79, -15.65, -13.41, -11.99, -7.19, -3.25, 0.0, 4.81, 10.01, 12.52, 12.52, 12.96, 0.0, -13.41, -12.52, -9.54, -8.58, -5.4, -3.39, -5.2, -2.93, -2.45, -0.0, -0.0, -0.0, -2.1, -6.44, -9.3, -11.18, -11.62, -12.27, -12.52, -10.73, -11.44, -11.09, -12.87, -15.61, -15.87, -15.2, -14.75, -12.96, -13.41, -13.86, 0.0, 0.0, 0.0, 0.0, 0.0, 0.0, -5.6, -10.75, -15.2, -0.0, -0.0, -0.0, -12.33, 0.0, 0.0, 0.0, 0.0, -2.72, -6.14, -9.77, -10.43, -11.44, -12.39, -11.12, -10.25, -9.27, -8.67, -8.57, -9.16, -11.33, -14.03, -16.48, -17.36, -16.49, -15.27, -0.0, -7.78, -8.3, -8.54, -10.09, -11.37, -12.22, -12.0, -12.01, -14.67, -14.7, -14.7, -14.88, -15.09, -15.7, -15.87, -15.77, -14.94, -15.12, -14.7, -14.66, -13.7, -12.96, -14.3, -13.15, -12.39, -7.69, 0.0, 12.96, 11.2, 11.87, 12.96, 0.0, -9.48, -8.53, -6.95, -5.2, -6.0, -8.53, -11.2, -10.12, -6.2, -2.37, -2.28, -2.28, -4.8, -5.59, -9.97, -12.52, -12.07, -12.39, -11.45, -11.62, -9.97, -10.12, -9.92, -11.9, -14.24, -15.49, -14.47, -14.75, -14.3, 0.0, 0.0, 0.0, 0.0, 0.0, 0.0, -3.96, -8.18, -11.7, -17.43, -0.0, -0.0, -0.0, 17.88, 11.38, 9.8, 8.94, 6.6, 5.49, 3.9, 2.0, 0.0, -1.53, -6.0, -8.85, -10.37, -11.69, -12.01, -9.41, -7.84, -7.88, -6.98, -8.38, -10.43, -10.12, 13.88, 12.04, 12.96, -7.51, -10.19, -11.38, -11.92, -12.2, -12.79, -12.35, -14.19, -14.19, -14.7, -14.3, -14.88, -15.09, -15.31, -15.06, -15.06, -14.65, -14.44, -14.03, -14.42, -14.26, -15.49, -14.3, -14.75, -14.11, -13.99, 0.0, -0.0, -0.0, -0.0, -0.0, -0.0, -2.6, -3.25, -0.0, 0.0, -11.2, -10.8, -6.95, -6.95, -0.0, -1.62, -4.32, -6.97, -8.22, -9.67, -12.04, -12.83, -12.35, -11.62, 0.0, -8.22, -8.22, -7.95, -8.85, -9.76, -10.3, -10.43, -11.38, -11.38, 0.0, 0.0, -0.0, 7.4, 13.86, 0.0, -4.24, -10.46, -14.88, -16.54, -7.2, -0.0, 5.65, 10.66, 17.88, 14.11, 9.17, 7.69, 6.6, 5.09, 1.78, 0.0, -3.53, -3.68, -6.21, -9.5, -11.87, -12.46, -12.33, -10.19, -6.69, -5.78, -2.24, -1.17, 0.0, 2.56, 2.91, 1.55, -2.06, -12.27, -11.5, -11.37, -12.58, -12.71, -12.63, -14.51, -14.19, -14.55, -14.7, -14.88, -15.45, -15.06, -14.79, -14.79, -14.79, -14.39, -14.21, -14.44, -14.99, -15.2, -14.64, -12.96, -12.52, -13.41, 0.0, 0.0, -0.0, -0.0, -0.0, -0.0, -0.0, -0.0, 2.69, -0.0, -2.6, -6.2, -4.8, -0.0, 2.49, -0.0, -3.98, -6.7, -7.26, -8.22, -10.04, -10.01, -6.7, -0.0, -0.0, -0.0, -3.82, -5.4, -5.6, -6.67, -7.13, -7.93, -8.51, -6.97, -3.95, -0.0, -0.0, 3.31, 5.94, 0.0, -6.2, -12.64, -15.72, -17.43, -8.93, -3.16, -0.0, 3.67, 12.65, 19.52, 12.01, 8.18, 6.2, 5.48, 4.81, 0.0, -2.28, -3.97, -6.1, -7.88, -9.77, -11.38, -12.22, -12.7, -9.01, -6.74, -4.03, -3.21, -1.89, -2.09, -1.06, -0.96, -2.28, -3.19, -8.22, -12.52, -12.51, -12.39, -12.39, -14.06, -14.06, -14.19, -14.7, -14.7, -14.88, -15.06, -14.67, -14.56, -14.17, -14.61, -14.21, -14.44, -14.94, -16.05, -16.54, -15.65, -14.75, -13.86, 0.0, -0.0, -0.0, 2.98, 2.43, 3.93, 3.81, 3.68, 3.56, 1.33, -0.98, -3.53, -0.0, -0.0, -0.0, -0.0, -1.69, -1.69, -3.53, -4.4, -5.0, -4.32, -2.28, -0.0, -3.11, -5.7, -6.44, -5.2, -5.99, -7.19, -8.38, -7.28, -7.11, -7.93, -8.43, -8.43, -9.09, -6.36, -0.0, -14.39, -8.53, -11.38, -15.69, -17.1, -8.28, -7.22, -7.47, -7.07, -4.91, -0.0, 0.0, 4.38, 6.64, 3.47, 2.28, 0.0, -1.77, -4.66, -7.71, -8.11, -9.49, -9.66, -10.76, -11.96, -13.23, -9.99, -8.9, -7.3, -6.28, -5.09, -3.93, -3.81, -2.82, -3.53, -3.68, -4.65, -11.99, -12.79, -12.72, -14.06, -14.06, -14.55, -14.55, -14.7, -14.7, -14.85, -14.47, -14.47, -14.56, -14.17, -13.99, -14.44, -15.12, -14.79, -16.54, -17.43, -16.99, -16.09, -11.06, -0.0, -0.0, -0.0, 2.15, 1.73, 1.68, 1.51, 1.47, 1.38, -0.0, -0.0, -0.0, -0.0, -1.93, -1.93, -0.0, -0.0, -0.0, -1.45, -1.76, -1.76, -2.02, -2.6, -7.27, -8.8, -9.2, -4.2, -4.15, -6.45, -7.82, -6.44, -6.21, -8.53, -8.53, -8.85, -8.37, -9.61, -15.01, -20.82, -9.8, -11.28, -15.43, -16.22, -13.26, -11.7, -9.92, -10.46, -13.28, -19.19, -22.8, -16.75, 0.0, -2.27, -1.84, -3.42, -5.81, -7.4, -8.35, -9.42, -10.19, -10.19, -9.17, -9.2, -9.62, -12.73, -12.63, -11.64, -9.91, -9.14, -6.93, -4.81, -3.42, -3.68, -5.6, -5.28, -4.98, -6.67, -12.04, -14.37, -14.06, -14.88, -14.55, -15.04, -15.42, -14.7, -14.33, -14.75, -14.09, -14.17, -13.99, -14.86, -14.86, -15.36, -15.59, -16.54, -17.43, -17.43, -12.01, -7.4, -0.0, -0.0, 1.94, 1.73, 1.73, 1.51, 1.63, 1.58, 1.53, 1.55, -0.0, -0.0, -3.25, -3.25, -0.0, -0.0, -0.0, -0.0, -0.0, -0.0, -0.0, -0.0, -6.95, 0.0, 0.0, 0.0, -0.0, -0.0, -2.19, -2.28, -4.15, -5.95, -4.2, 0.0, -4.8, -7.44, -11.28, -18.11, -16.76, -10.99, -12.79, -13.72, -13.39, -12.27, -11.87, -12.92, -14.13, -13.97, -17.25, -20.16, -17.17, -11.41, -7.51, -8.18, -10.59, -11.04, -10.25, -9.0, -7.6, -7.8, -4.67, -3.39, -3.53, -4.81, -12.5, -12.05, -11.38, -10.3, -9.73, -7.6, -5.62, -5.06, -6.44, -6.0, -5.11, -5.8, -5.8, -14.37, -14.37, -14.42, -14.88, -14.88, -15.42, -15.04, -15.04, -14.29, -14.36, -14.17, -14.39, -14.86, -15.27, -15.46, -14.85, -15.59, -16.54, -17.88, -15.59, -5.51, -0.0, -0.0, -0.0, -0.0, 1.73, 1.68, 1.51, 1.51, 1.63, 1.58, -0.0, -0.0, -0.0, -0.0, -0.0, -0.0, 1.69, 2.6, -0.0, -0.0, -0.0, -0.0, -0.0, -0.0, 9.39, 9.83, 7.27, 7.27, 4.6, -0.0, -0.0, -0.0, 0.0, 9.39, 9.83, -0.0, -9.67, -13.19, -15.65, -11.45, -11.62, -11.62, -12.07, -11.71, -9.17, -9.17, -10.01, -7.2, -7.3, -20.36, -18.11, -15.02, -13.8, -11.54, -14.53, -15.01, -12.22, -8.2, 0.0, 3.59, 2.59, 0.0, 0.0, -1.09, -2.19, -9.48, -8.44, -8.54, -9.13, -8.97, -6.79, -6.96, -7.44, -6.67, -6.7, -6.94, -6.94, -13.95, -14.37, -14.73, -14.88, -14.88, -15.25, -15.25, -14.55, -14.67, -14.75, -14.39, -14.61, -15.44, -15.44, -15.85, -15.46, -15.52, -16.32, -17.43, -16.54, -7.8, -0.0, -0.0, -0.0, -0.0, 1.78, -0.0, 1.6, 1.6, 1.6, 1.56, 1.63, -0.0, -0.0, -0.0, 1.54, 1.39, 2.1, 2.02, -0.0, -0.0, -2.83, -0.0, -0.0, -0.0, -0.0, -0.0, -0.0, -0.0, 7.27, 7.27, -0.0, 0.0, 0.0, 0.0, 10.28, 7.27, 0.0, -12.07, -12.96, 0.0, 0.0, 0.0, 0.0, 7.59, 9.2, -0.0, -4.58, -6.2, -10.46, -21.9, -17.39, -15.99, -18.11, -15.8, -16.53, -17.19, -15.74, -10.91, 0.0, 0.0, 0.0, -1.54, -2.31, -3.22, -2.82, -3.82, -6.67, -8.73, -9.21, -8.4, -7.63, -7.82, -9.17, -8.91, -7.54, -7.82, -7.82, -14.24, -14.37, -14.73, -14.73, -14.88, -15.25, -15.25, -14.88, -14.19, -14.29, -14.36, -14.17, -15.02, -15.44, -15.85, -14.79, -15.87, -15.93, -16.82, -16.54, -11.7, -4.12, -2.34, -0.0, 1.6, 1.78, 1.83, 1.6, 1.6, 1.46, 2.8, 2.72, 2.81, 2.28, 3.08, 1.69, 1.39, -0.0, -0.0, -2.39, -2.39, -2.39, -3.11, -4.6, -0.0, -0.0, -0.0, -0.0, -0.0, -0.0, 0.0, 0.0, 0.0, 0.0, 0.0, 10.28, 7.27, 9.6, 10.0, 10.0, 8.53, 0.0, 7.59, 9.6, 10.73, 9.83, 9.39, 4.6, -5.4, -13.58, -19.99, -18.66, -18.26, -19.66, -16.64, -16.82, -17.88, -18.59, -16.87, -13.28, -11.16, -9.92, -9.01, -7.44, -6.79, -6.56, -7.78, -5.8, -8.83, -11.17, -10.12, -8.21, -7.82, -9.34, -10.63, -9.17, -8.85, -8.85, -14.24, -14.64, -14.37, -14.37, -14.73, -14.73, -15.54, -14.88, -14.88, -14.67, -14.36, -14.79, -15.2, -15.61, -15.58, -16.79, -14.79, -15.06, -15.61, -16.09, -16.54, -12.33, -2.72, -0.0, -0.0, -0.0, -0.0, -0.0, -0.0, 1.25, 2.56, 3.47, 3.25, 3.82, 3.53, 2.41, 0.79, -0.82, -3.53, -2.6, -3.65, -2.49, -3.53, -5.0, -0.0, -0.0, -0.0, -0.0, -0.0, -0.0, 7.27, 7.27, 10.28, 10.28, 10.28, 10.28, 7.27, 5.0, 5.4, 0.0, 0.0, 0.0, 0.0, 9.83, 9.83, 9.39, 9.39, 9.2, 0.0, -14.3, -15.99, -14.22, -17.86, -19.2, -18.14, -16.54, -16.07, -16.54, -16.84, -16.27, -14.29, -14.06, -12.49, -12.42, -12.16, -12.16, -12.09, -12.49, -10.54, -11.03, -11.9, -10.3, -9.48, -9.92, -11.53, -11.07, -10.73, -10.73, -14.24, -14.24, -14.64, -14.37, -14.73, -14.73, -14.73, -14.73, -14.88, -14.95, -14.75, -14.36, -14.79, -15.61, -15.61, -15.2, -15.02, -14.44, -16.76, -16.54, -17.43, -16.99, -6.31, -2.87, -2.65, -2.57, -0.0, -0.0, -0.0, 1.17, 1.13, 2.06, 2.93, 2.93, 2.82, 2.6, 1.76, -0.0, -0.97, -1.02, -1.18, -0.0, -0.0, -0.0, -0.0, -0.0, -0.0, -0.0, -0.0, 6.95, 6.95, 9.2, 9.6, 11.18, 9.83, 9.83, 7.9, 5.95, 0.0, 0.0, 0.0, 0.0, 0.0, 10.73, 10.28, 10.28, 9.75, 7.9, 7.24, 8.05, 3.24, 0.0, 0.0, -5.17, -10.81, -16.48, -15.98, -18.78, -17.41, -16.37, -14.71, -14.46, -14.49, -13.89, -13.63, -12.43, -11.25, -9.69, -10.58, -10.41, -11.81, -11.66, -12.37, -11.66, -12.39, -13.2, -12.13, -12.13, -14.24, -14.24, -14.24, -14.24, -14.37, -14.37, -14.73, -14.73, -14.88, -14.88, -14.57, -14.59, -14.99, -15.39, -15.39, -15.39, -15.2, -14.73, -14.31, -16.99, -17.43, -15.43, -8.28, -3.9, -4.62, -4.62, -2.89, -1.38, -0.0, -0.0, 1.05, 1.05, 2.08, 2.08, 2.08, 2.0, 1.01, 1.07, -0.0, -0.0, -0.0, -0.0, -0.0, -0.0, -0.0, -0.0, -0.0, -0.0, -0.0, 4.6, 6.95, 9.2, 9.6, 10.0, 10.73, 10.28, 9.3, 7.9, 0.0, 0.0, 0.0, 0.0, 10.73, 11.18, 10.28, 10.73, 10.73, 11.21, 11.12, 10.82, 9.77, 7.44, 1.93, -7.92, -13.07, -14.95, -17.57, -20.5, -21.77, -18.76, -16.62, -14.56, -12.41, -11.16, -10.36, -10.18, -6.9, -2.2, -3.68, -7.85, -10.25, -11.64, -12.65, -11.5, -12.7, -13.35, -12.86, -12.86, -14.13, -14.24, -14.24, -14.24, -14.24, -14.37, -14.37, -14.73, -14.73, -14.51, -14.57, -14.59, -14.59, -15.56, -15.56, -15.39, -15.39, -14.79, -15.38, -16.31, -16.09, -14.23, -8.18, -3.69, -3.49, -3.59, -1.78, -1.68, -0.0, -0.0, -0.0, 1.05, 1.16, 1.16, 1.16, 1.11, 1.28, 1.28, 1.39, 1.39, 1.58, -0.0, -0.0, -0.0, -0.0, -0.0, -0.0, -0.0, -0.0, 4.6, 4.6, 7.59, 7.59, 10.0, 10.73, 11.18, 11.62, 12.52, 11.62, 0.0, 0.0, 0.0, 11.18, 11.18, 11.18, 11.18, 11.62, 11.84, 12.79, 14.75, 15.34, 14.22, 12.19, -4.73, -10.6, -11.2, -14.57, -18.33, -19.46, -20.81, -18.25, -15.87, -14.86, -12.37, -10.12, -6.0, -2.2, -2.35, -6.6, -5.4, -7.73, -10.63, -11.64, -12.18, -12.99, -12.99, -12.99, -12.99, -14.13, -14.13, -14.13, -14.24, -14.24, -14.24, -14.37, -14.37, -14.37, -14.37, -14.13, -14.18, -14.59, -14.79, -15.19, -15.19, -14.99, -14.99, -15.2, -16.48, -16.54, -15.07, -9.44, -5.63, -5.18, -3.79, -3.9, -2.0, -0.0, -0.0, -0.0, -0.0, 1.33, 1.28, 1.28, 1.44, 1.44, 1.64, 1.64, 1.91, 1.91, 2.28, 2.28, 2.28, 2.28, 2.19, -0.0, -0.0, -0.0, -0.0, 7.27, 7.59, 7.59, 10.0, 10.73, 10.73, 10.84, 11.6, 5.8, -0.0, -0.0, -0.0, 11.62, 11.03, 10.84, 11.18, 11.62, 11.18, 11.62, 12.27, 13.15, 17.88, 23.59, -9.8, -8.05, -9.58, -11.04, -10.75, -16.33, -17.97, -19.1, -16.96, -15.49, -15.25, -13.43, -11.09, -9.13, -10.12, -10.75, -12.64, -10.34, -10.51, -10.99, -11.29, -11.9, -11.64, -12.07, -12.07, -14.13, -14.13, -14.13, -14.13, -14.24, -14.24, -14.24, -14.37, -14.37, -14.37, -14.4, -14.03, -14.42, -14.42, -15.37, -15.37, -15.19, -14.99, -15.2, -15.68, -16.9, -16.05, -11.06, -8.43, -7.1, -5.81, -4.18, -2.21, -0.0, -0.0, -0.0, -0.0, -0.0, -0.0, 1.64, 1.58, 1.84, 1.84, 2.28, 2.28, 2.28, 2.82, 2.82, 2.82, 6.45, 2.71, -0.0, -0.0, -0.0, -0.0, 8.22, 7.9, 7.59, 7.59, 9.2, 10.28, 9.75, 10.04, 9.17, -0.0, 0.0, 0.0, 11.18, 11.03, 10.84, 11.45, 11.71, 12.14, 10.84, 11.18, 0.0, -18.39, 0.0, 28.16, 0.0, -13.01, -11.64, -9.17, -8.85, -14.56, -15.05, -17.31, -17.43, -15.93, -14.87, -14.49, -14.54, -15.09, -15.74, -14.88, -12.45, -9.92, -10.36, -8.66, -7.36, -8.94, -9.13, -9.13, -14.13, -14.13, -14.13, -14.13, -13.88, -13.88, -14.24, -14.24, -14.64, -14.37, -14.0, -14.03, -14.03, -14.42, -14.62, -15.01, -14.79, -14.79, -14.99, -15.58, -16.39, -16.99, -15.2, -11.38, -8.43, -8.18, -6.6, -4.66, -2.5, -0.0, -0.0, -0.0, -0.0, -0.0, -0.0, 2.28, 2.19, 2.71, 2.71, 2.82, 2.82, 3.68, 3.53, 3.53, 7.9, 7.59, 8.22, 7.59, 8.8, 9.33, 10.18, 12.52, 10.73, 7.59, 7.27, 9.2, 9.2, 8.8, 8.22, 0.0, 0.0, 4.2, 6.95, 9.6, 11.03, 12.07, 11.45, 11.71, 10.8, 0.0, -9.48, -9.39, 0.0, 6.72, 9.73, 6.5, 0.0, -6.16, -7.58, -4.24, -11.53, -13.84, -18.76, -20.06, -18.91, -17.87, -17.89, -17.38, -15.59, -14.16, -15.19, -11.8, -9.16, -6.6, -5.28, -5.46, -6.2, -6.2, -13.76, -13.76, -13.76, -14.13, -14.13, -13.49, -13.49, -13.88, -14.24, -14.24, -14.0, -14.0, -14.03, -14.03, -14.62, -14.62, -14.62, -14.79, -14.99, -15.36, -16.24, -16.9, -16.86, -14.79, -12.22, -9.49, -7.59, -5.31, -2.81, -0.0, -0.0, -0.0, -0.0, 3.25, 3.04, 3.82, 3.68, 3.53, 3.53, 5.0, 5.0, 5.2, 5.0, 7.9, 9.6, 9.6, 10.4, 10.28, 9.83, 9.83, 11.18, 11.18, 12.52, 12.07, 7.9, 9.6, 7.27, 6.95, 4.6, 8.22, 12.07, 10.8, 6.64, 8.8, 10.6, 11.71, 12.14, 11.2, 5.8, 0.0, -5.4, -6.4, -2.79, 0.0, 5.35, 12.81, 8.14, 0.0, -4.1, -4.72, -4.24, -9.8, -15.11, -17.43, -16.99, -17.24, -15.84, -13.64, -13.62, -14.9, -16.86, -12.71, -8.83, -7.0, -5.15, -6.4, -4.38, -4.38, -13.76, -13.76, -13.76, -14.13, -13.77, -13.49, -13.49, -13.49, -13.88, -13.88, -13.88, -14.26, -13.63, -14.03, -14.26, -14.26, -14.62, -14.62, -14.79, -14.99, -15.2, -15.96, -16.44, -16.37, -15.27, -13.42, -12.16, -8.18, -4.52, -0.0, -0.0, -0.0, 9.17, 12.96, 12.52, 12.52, 12.52, 12.07, 12.07, 11.62, 11.18, 11.62, 11.62, 10.73, 10.28, 11.18, 11.18, 10.28, 9.83, 9.83, 10.73, 11.18, 10.28, 9.97, 7.9, 7.59, 4.8, 3.25, 2.28, 3.25, 12.07, 10.84, 9.3, 10.41, 11.87, 11.28, 10.8, 7.19, 5.8, 0.0, 0.0, -2.63, -4.66, -2.79, 0.0, 3.86, -2.72, -5.18, -4.81, -4.4, -5.77, -4.55, -10.12, -12.58, -13.86, -16.52, -15.43, -15.65, -13.59, -13.99, -15.2, -15.98, -12.33, -10.47, -8.94, -7.36, -6.4, -6.4, -13.76, -13.76, -13.76, -14.13, -13.77, -13.77, -13.49, -13.49, -13.49, -13.88, -13.88, -13.88, -14.26, -14.0, -14.64, -14.26, -14.26, -14.62, -14.42, -14.59, -14.79, -15.27, -15.84, -15.97, -16.09, -15.65, -14.75, -15.2, -14.75, -14.3, 0.0, 0.0, 13.41, 9.17, 8.85, 11.2, 11.2, 11.2, 10.8, 8.53, 8.22, 8.22, 7.9, 7.27, 6.95, 7.59, 4.6, 10.28, 9.83, 10.28, 11.18, 10.73, 10.73, 10.28, 10.41, 8.22, 5.0, -0.0, 2.49, 4.6, 10.0, 11.18, 10.0, 11.21, 11.28, 11.87, 9.48, 3.96, 0.0, 0.0, 0.0, 0.0, -4.24, -6.88, -7.54, -11.43, -17.71, -15.17, -9.8, -5.98, -6.2, -5.98, -5.55, -4.93, -10.61, -13.74, -13.99, -2.57, -9.39, -14.55, -14.75, -15.23, -14.18, -13.26, -11.7, -10.52, -9.49, -9.49, -13.76, -13.76, -13.76, -13.76, -13.77, -13.77, -13.49, -13.49, -13.49, -13.49, -13.88, -13.88, -13.88, -14.26, -14.0, -14.03, -14.03, -14.03, -14.03, -14.18, -14.36, -14.17, -14.65, -14.71, -15.04, -13.58, -13.03, -13.59, -12.27, -6.6, 0.0, 0.0, 0.0, 6.0, 4.1, 6.94, 6.94, 6.94, 6.7, 6.7, 6.45, 6.45, 7.9, 8.53, 8.53, 4.6, 4.2, 5.46, 4.6, 7.27, 11.18, 10.73, 9.75, 9.97, 10.52, 10.41, 8.53, 5.2, 2.6, 5.0, 9.3, 11.18, 12.07, 12.52, 12.07, 12.04, 11.09, 8.85, 0.0, 0.0, 0.0, 0.0, 0.0, -5.28, -9.42, -13.62, -19.23, -18.41, -16.79, -13.05, -7.82, -6.17, -6.94, -5.78, -4.55, -6.0, -3.25, -6.6, -15.2, -15.2, -14.6, -14.23, -13.74, -13.73, -14.0, -12.97, -11.7, -11.7, -13.41, -13.41, -13.41, -13.41, -13.77, -13.77, -13.41, -13.11, -13.49, -13.49, -13.49, -13.49, -13.88, -13.88, -14.0, -13.63, -13.63, -13.63, -14.03, -13.39, -13.54, -13.71, -12.52, -12.65, -12.35, -11.54, -10.75, -9.49, -8.85, -6.6, -3.47, 0.0, 0.0, 3.25, 3.14, 5.6, 5.6, 5.6, 5.4, 7.24, 7.24, 6.97, 6.97, 6.44, 6.71, 6.45, 6.2, 3.82, 4.6, 6.2, 7.9, 7.27, 10.28, 10.28, 10.73, 10.73, 9.83, 9.3, 8.22, 6.2, 8.93, 10.6, 12.07, 11.62, 12.07, 12.52, 13.28, 12.79, 10.6, 0.0, 0.0, 2.63, 3.9, 0.0, -5.65, -12.01, -12.95, -15.59, -18.08, -19.08, -16.41, -9.44, -9.17, -8.32, -5.86, -5.02, -3.01, -2.81, -7.32, -10.43, -10.43, -7.0, -3.79, -12.82, -13.01, -13.61, -12.33, -12.33, -13.41, -13.41, -13.41, -13.41, -13.41, -13.77, -13.41, -13.11, -12.77, -12.77, -13.49, -13.49, -13.49, -13.59, -13.59, -13.23, -12.87, -13.63, -13.34, -13.76, -13.1, -12.4, -12.02, -12.11, -10.75, -10.01, -9.6, -7.32, -6.4, -4.66, -2.43, 0.0, 0.0, 2.72, 2.63, 4.81, 4.65, 4.65, 6.44, 6.21, 6.21, 6.21, 5.98, 5.75, 6.44, 6.7, 3.82, 3.98, 4.6, 6.71, 7.59, 7.27, 8.23, 10.73, 10.73, 10.73, 10.28, 11.62, 10.73, 10.6, 7.9, 5.2, 8.53, 11.03, 10.8, 10.4, 11.46, 12.58, 10.04, 7.27, 6.64, 7.9, 7.0, 7.79, 2.78, -4.34, -9.92, -9.22, -14.18, -19.4, -21.48, -15.99, -12.52, -10.86, -9.8, -8.58, -7.1, -4.52, -4.11, -5.48, 0.0, 10.43, 6.8, 5.81, -5.81, -8.28, -7.6, -7.6, -13.05, -13.05, -13.41, -13.41, -13.41, -13.41, -13.06, -12.77, -12.77, -12.77, -12.77, -12.78, -13.18, -13.18, -13.59, -13.23, -12.57, -12.57, -13.34, -12.22, -12.3, -11.94, -11.53, -10.75, -10.17, -10.1, -8.18, -7.58, -5.81, -3.36, -1.77, 0.0, 0.0, 0.0, 2.28, 2.2, 4.1, 4.1, 5.6, 5.6, 5.4, 5.4, 5.2, 5.98, 5.75, 4.15, 4.15, 3.98, 6.44, 6.71, 7.59, 7.27, 8.58, 9.6, 9.2, 10.28, 10.96, 10.96, 10.58, 10.28, 10.8, 5.2, 8.22, 10.6, 11.28, 10.0, 9.75, 11.62, 8.85, 8.53, 8.23, 8.58, 7.69, 5.16, 5.7, 1.34, -6.4, -10.4, -11.09, -11.17, -12.96, -9.92, -5.37, -4.95, -9.09, -11.38, -10.47, -7.73, -5.02, -5.15, 0.0, 10.12, 6.6, 3.69, 2.98, 0.0, 0.0, 0.0, -13.05, -13.05, -13.05, -13.41, -13.41, -13.41, -13.06, -12.77, -12.4, -12.77, -12.77, -12.45, -12.78, -13.18, -13.18, -12.5, -12.5, -11.79, -11.79, -11.79, -11.5, -11.06, -10.27, -10.22, -9.62, -8.68, -7.59, -6.4, -3.98, -2.98, -1.48, 0.0, 0.0, 0.0, 0.0, 1.96, 1.9, 3.68, 3.56, 3.44, 5.6, 5.6, 5.4, 3.68, 3.53, 3.53, 4.15, 3.98, 4.8, 4.8, 7.27, 7.27, 7.9, 8.93, 8.55, 8.93, 8.93, 10.41, 10.08, 10.52, 10.73, 10.73, 11.62, 10.73, 11.18, 10.84, 10.18, 10.28, 10.4, 9.17, 8.53, 7.9, 2.82, -2.0, 0.0, 1.42, 0.0, -13.19, -9.8, -2.43, -1.78, 0.0, 0.0, 0.0, 0.0, -4.75, -7.82, -8.72, -5.63, -4.24, 0.0, 0.0, 0.0, 0.0, 0.0, 2.98, 0.0, 0.0, -13.05, -13.05, -13.05, -13.05, -13.41, -13.41, -13.06, -12.77, -12.4, -12.4, -12.4, -12.45, -12.45, -12.78, -12.5, -12.5, -11.38, -11.38, -10.95, -10.65, -10.61, -10.31, -9.82, -9.73, -8.85, -7.43, -6.85, -5.92, -5.04, -2.81, -1.33, -1.48, 0.0, 0.0, 0.0, 1.72, 1.72, 1.96, 3.68, 3.56, 3.56, 3.44, 3.44, 3.82, 3.68, 3.53, 3.53, 3.98, 3.98, 4.8, 4.8, 6.2, 5.95, 7.27, 8.55, 8.55, 8.55, 8.18, 9.2, 9.96, 12.52, 11.18, 11.18, 11.18, 10.28, 10.73, 10.73, 10.73, 11.62, 11.2, 10.01, 8.85, 3.04, -1.68, -5.33, 0.0, 4.04, 5.52, 3.78, 1.73, 0.0, -1.3, -1.3, -1.3, -1.41, -2.28, -2.45, -3.42, -1.77, 0.0, 0.0, 0.0, 0.0, -4.24, -3.25, 0.0, 0.0, 0.0, -13.05, -13.05, -13.05, -12.7, -12.7, -13.06, -12.77, -12.77, -12.4, -12.4, -12.07, -12.07, -12.07, -12.42, -12.09, -11.7, -11.38, -10.95, -10.95, -10.47, -10.18, -9.39, -9.27, -9.27, -7.73, -6.99, -6.4, -5.5, -4.89, -3.76, -2.56, -1.38, -1.33, 0.0, 0.0, 0.0, 1.72, 1.72, 1.66, 1.66, 1.66, 1.83, 1.77, 3.32, 3.32, 1.91, 1.84, 4.15, 4.15, 3.98, 4.8, 5.0, 4.8, 5.7, 5.95, 5.7, 6.95, 6.95, 8.8, 9.2, 9.64, 11.62, 10.18, 11.18, 11.18, 11.18, 10.73, 11.18, 11.18, 11.45, 10.01, 9.8, 5.31, 0.0, -1.63, 0.0, 4.03, 8.32, 7.22, 3.54, 0.0, -2.4, -3.52, -4.47, -3.52, -2.72, -1.83, -1.47, 0.0, 0.0, 0.0, 0.0, 0.0, -3.04, -5.8, -7.78, -5.48, -5.48, -12.68, -12.68, -12.7, -12.7, -12.7, -12.7, -12.77, -12.77, -12.4, -12.4, -12.07, -12.07, -12.07, -11.7, -11.7, -11.7, -10.95, -10.95, -10.47, -10.47, -9.67, -9.39, -8.83, -7.98, -7.73, -6.99, -5.99, -5.5, -4.52, -3.47, -2.56, -1.3, -1.25, 0.0, 0.0, 0.0, 0.0, 0.0, 0.0, 0.0, 0.0, 1.61, 1.83, 1.77, 1.71, 1.71, 1.91, 1.91, 2.19, 4.15, 3.98, 3.98, 4.8, 4.8, 4.6, 5.9, 6.95, 6.95, 7.87, 9.2, 9.55, 8.94, 9.6, 9.2, 10.28, 11.18, 7.27, 9.6, 11.18, 11.18, 11.6, 9.17, 5.81, 5.81, 3.16, 0.0, 1.73, 4.77, 4.21, 1.22, -1.18, -3.47, -4.52, -5.11, -4.24, -1.83, -1.83, 0.0, 0.0, 0.0, 0.0, 0.0, 0.0, -3.14, -5.6, -7.19, -7.13, -7.13, -12.35, -12.35, -12.7, -12.7, -12.7, -12.42, -12.77, -12.77, -12.77, -12.4, -12.07, -12.07, -11.7, -11.7, -11.29, -11.29, -10.95, -10.95, -10.47, -10.47, -9.67, -8.83, -8.83, -7.98, -7.32, -6.99, -5.99, -5.14, -4.52, -3.47, -2.35, -2.35, -1.3, 0.0, 0.0, 0.0, 0.0, 0.0, 0.0, 0.0, 0.0, 0.0, 0.0, 0.0, 1.58, 1.71, 1.71, 1.91, 1.91, 2.19, 2.19, 3.98, 3.98, 4.8, 4.4, 5.9, 6.95, 6.64, 7.87, 7.87, 8.8, 9.11, 10.28, 9.83, 10.73, 11.18, 9.83, 9.2, 10.73, 10.73, 10.4, 9.17, 11.06, 10.41, 8.08, 3.2, -1.96, -4.88, -5.76, -5.98, -4.77, -3.92, -3.69, -4.81, -2.93, 0.0, 0.0, 0.0, 0.0, 0.0, 0.0, 0.0, 0.0, 0.0, -3.14, -5.8, -8.05, -8.05, -12.35, -12.35, -12.35, -12.7, -12.42, -12.42, -12.42, -12.42, -12.4, -12.07, -12.07, -11.38, -11.38, -10.98, -11.29, -10.98, -10.54, -10.05, -10.05, -9.52, -9.25, -8.68, -8.22, -7.98, -7.32, -6.4, -5.63, -5.14, -5.14, -4.21, -3.47, -2.35, -1.19, -1.19, 0.0, 0.0, 0.0, 0.0, 0.0, 0.0, 0.0, 0.0, 0.0, 0.0, 0.0, 0.0, 0.0, 0.0, 0.0, 0.0, 2.19, 2.1, 3.98, 3.82, 4.4, 4.4, 5.63, 6.64, 6.64, 7.87, 7.87, 8.4, 10.73, 9.39, 9.83, 10.73, 10.73, 10.28, 10.73, 11.18, 11.18, 11.6, 12.27, 11.16, 12.16, 10.2, 2.89, -4.81, -9.33, -9.47, -5.71, -2.5, -1.38, 0.0, 0.0, 0.0, 0.0, 0.0, 0.0, 0.0, 0.0, 0.0, 0.0, 0.0, -2.2, -4.81, -8.05, -8.05, -12.35, -12.35, -12.35, -12.08, -12.42, -12.42, -12.42, -12.07, -11.74, -11.74, -11.74, -11.38, -11.7, -11.29, -10.89, -10.43, -10.43, -9.66, -9.52, -9.25, -8.68, -8.43, -7.82, -6.94, -6.94, -6.4, -5.63, -4.81, -4.81, -4.21, -3.22, -2.18, -2.18, -1.19, -1.19, -1.3, -1.25, -1.33, -1.33, 0.0, 0.0, 0.0, 0.0, 0.0, 0.0, 0.0, 0.0, 0.0, 0.0, 0.0, 0.0, 2.1, 2.1, 3.82, 3.65, 4.4, 4.2, 5.36, 6.64, 6.64, 7.87, 7.51, 6.8, 9.83, 10.28, 10.28, 9.83, 10.28, 10.73, 11.18, 11.18, 10.4, 12.39, 13.02, 12.29, 17.17, 12.65, 3.16, -3.47, -8.87, -8.38, -4.24, -1.48, 0.0, 0.0, 0.0, 0.0, 0.0, 0.0, 0.0, -1.96, -1.96, 0.0, -1.72, -1.66, -4.24, -6.67, -8.05, -12.35, -12.35, -12.08, -12.08, -12.08, -11.73, -12.07, -11.74, -11.74, -11.74, -11.38, -11.7, -11.7, -11.29, -11.29, -10.43, -10.43, -9.66, -9.12, -8.86, -8.06, -7.45, -7.23, -6.94, -6.24, -6.05, -5.31, -4.81, -4.81, -3.93, -3.22, -3.12, -2.18, -2.18, -2.35, -2.35, -1.25, -1.38, -1.38, -1.53, 0.0, 0.0, 0.0, 0.0, 0.0, 0.0, 0.0, 0.0, 0.0, 0.0, 0.0, 2.02, 2.02, 2.02, 1.93, 1.84, 3.49, 4.0, 5.36, 5.63, 5.63, 6.64, 7.59, 6.95, 9.83, 7.27, 9.83, 10.73, 9.75, 11.18, 11.62, 10.4, 11.6, 12.39, 13.02, 12.85, 15.64, 8.62, 3.88, 0.0, 0.0, 0.0, 0.0, 0.0, 0.0, 0.0, -2.09, -2.09, -2.09, -2.02, -3.93, -3.93, -3.81, -3.36, -2.91, -3.14, -4.1, -4.1, -12.35, -12.35, -12.08, -12.08, -11.73, -11.41, -11.74, -11.74, -11.74, -11.38, -11.7, -11.7, -11.29, -11.29, -11.29, -10.43, -10.43, -9.66, -9.66, -8.29, -8.06, -7.45, -7.23, -6.6, -5.91, -6.24, -5.31, -5.31, -4.81, -4.81, -3.93, -4.21, -3.22, -3.22, -2.28, -2.35, -2.56, -1.3, -1.42, -1.38, 0.0, 0.0, 0.0, 0.0, 0.0, 0.0, 0.0, 0.0, 1.28, 1.28, 1.45, 2.7, 1.62, 1.62, 1.54, 1.54, 3.32, 4.6, 4.6, 4.6, 4.83, 5.36, 5.1, 6.95, 6.95, 6.95, 9.2, 10.28, 10.28, 11.18, 11.62, 10.0, 12.96, 11.87, 10.43, 0.0, 2.72, 4.49, 8.91, 10.17, 10.41, 9.01, 7.22, 4.72, 1.34, -2.05, -5.81, -5.63, -5.81, -5.63, -5.63, -5.63, -5.46, -6.0, -4.55, -4.55, -4.55, -4.55, -11.73, -11.73, -12.08, -11.73, -11.41, -11.41, -11.74, -11.38, -11.01, -11.01, -11.31, -10.89, -10.89, -10.89, -10.89, -10.43, -10.15, -9.66, -9.66, -8.06, -8.06, -7.23, -7.23, -6.6, -6.6, -5.91, -6.05, -5.31, -5.63, -4.81, -5.14, -4.21, -4.21, -3.47, -3.36, -2.35, -2.56, -1.3, -1.3, -1.42, -1.38, 0.0, 0.0, 0.0, 0.0, 0.0, 0.0, 0.0, 1.33, 1.28, 2.39, 2.39, 1.16, 1.33, 1.33, 1.26, 2.83, 2.69, 3.8, 4.0, 3.32, 3.32, 3.32, 4.8, 6.95, 6.95, 7.27, 10.73, 10.28, 11.18, 11.18, 10.73, 11.62, 12.3, 6.0, 0.0, 0.0, 3.6, 10.83, 14.45, 14.48, 13.63, 11.63, 8.14, 5.55, 1.41, -4.95, -9.22, -7.93, -7.1, -6.2, -6.88, -6.88, -6.65, -5.8, -5.8, -5.8, -5.8, -11.73, -11.73, -11.73, -11.73, -11.41, -11.41, -11.41, -11.06, -11.01, -11.01, -10.6, -10.6, -10.89, -10.6, -10.15, -10.15, -10.15, -9.39, -9.39, -8.61, -7.82, -7.23, -7.23, -6.6, -6.6, -6.05, -6.05, -5.31, -5.63, -4.81, -5.14, -4.21, -4.21, -3.22, -3.47, -2.35, -2.35, -2.35, -1.3, -1.3, -1.38, -1.38, -1.33, 0.0, 0.0, 0.0, 0.0, 0.0, 0.0, 0.0, 1.28, 1.22, 1.22, 1.16, 1.33, 1.2, 2.69, 2.54, 2.54, 2.69, 2.69, 2.83, 3.32, 3.15, 4.8, 6.95, 6.95, 8.4, 10.28, 10.73, 11.62, 10.28, 11.18, 12.52, 6.0, 0.0, 0.0, 3.28, 8.18, 14.26, 17.87, 16.41, 12.42, 9.33, 7.29, 5.33, 1.69, -10.05, -11.68, -9.8, -7.93, -6.94, -8.3, -7.54, -7.54, -6.21, -6.21, -6.21, -11.73, -11.73, -11.73, -11.09, -11.41, -11.09, -11.06, -11.06, -10.7, -10.6, -10.6, -10.6, -10.6, -10.15, -10.15, -9.87, -9.39, -9.39, -8.61, -8.61, -8.06, -7.23, -7.23, -6.6, -6.73, -6.05, -6.05, -5.31, -5.63, -4.81, -4.81, -4.21, -4.21, -3.22, -3.22, -2.35, -2.35, -2.35, -1.19, -1.3, -1.25, -1.33, -1.33, -1.29, -1.29, -1.38, 0.0, 0.0, 0.0, 0.0, 0.0, 0.0, 0.0, 0.0, 0.0, 1.26, 1.47, 1.4, 2.54, 2.54, 2.69, 2.69, 2.83, 3.49, 4.0, 4.6, 6.95, 6.32, 9.83, 10.28, 10.28, 10.73, 11.62, 12.52, 0.0, 0.0, 0.0, 3.49, 7.26, 10.66, 16.31, 16.76, 12.79, 8.98, 8.15, 6.4, 4.45, -1.93, -13.42, -12.65, -8.05, -7.24, -7.82, -8.01, -6.94, -6.7, -6.7, -6.7, -11.73, -11.73, -11.09, -11.09, -11.09, -11.09, -10.75, -11.06, -10.7, -10.3, -10.3, -10.3, -9.87, -9.87, -9.87, -9.39, -9.39, -9.12, -8.61, -8.61, -8.06, -7.23, -7.01, -6.4, -6.73, -6.05, -6.05, -5.31, -5.63, -4.81, -4.81, -3.93, -4.21, -4.21, -3.22, -3.22, -2.18, -2.35, -2.35, -2.28, -2.48, -2.4, -1.33, -1.29, -1.29, -1.38, -1.33, -1.33, 0.0, 0.0, 0.0, 0.0, 0.0, 0.0, 0.0, 0.0, 0.0, 1.4, 1.32, 1.32, 2.54, 2.69, 2.69, 2.83, 3.32, 4.4, 6.64, 6.64, 9.83, 9.83, 9.75, 11.18, 11.62, 0.0, 0.0, 0.0, 0.0, 4.18, 7.2, 9.92, 11.53, 14.02, 13.53, 13.57, 10.83, 6.36, 3.51, 0.0, -13.19, -11.6, -5.6, -6.94, -7.24, -8.53, -7.24, -5.4, -5.4, -5.4, -11.09, -11.09, -11.09, -10.76, -11.09, -10.75, -10.75, -10.75, -10.4, -10.3, -10.3, -10.3, -9.87, -9.87, -9.87, -9.12, -9.12, -8.61, -8.61, -8.06, -7.82, -7.23, -7.01, -6.4, -6.4, -5.73, -6.05, -5.31, -5.31, -4.81, -4.81, -4.81, -3.93, -3.93, -3.22, -3.22, -3.22, -2.35, -2.28, -2.28, -2.4, -2.4, -2.54, -2.54, -1.29, -1.25, -1.33, -1.33, -1.28, -1.44, 0.0, 0.0, 0.0, 0.0, 0.0, 0.0, 0.0, 0.0, 0.0, 1.32, 1.25, 1.32, 2.69, 2.83, 3.32, 4.6, 4.6, 6.95, 8.8, 9.83, 10.28, 10.73, 8.22, 0.0, 0.0, 0.0, 3.36, 5.31, 7.32, 9.09, 10.59, 11.54, 16.48, 17.29, 13.44, 6.79, 3.04, 0.0, -12.96, 0.0, 0.0, 0.0, -6.45, -7.9, -7.9, 0.0, 0.0, 0.0, -10.76, -10.76, -10.76, -10.76, -10.43, -10.43, -10.09, -10.4, -10.4, -10.01, -10.01, -10.01, -9.58, -9.58, -9.58, -9.12, -9.12, -8.61, -8.61, -7.82, -7.82, -7.01, -6.4, -6.4, -5.73, -5.73, -5.73, -5.31, -5.31, -4.52, -4.81, -4.96, -4.05, -4.05, -4.21, -3.22, -3.22, -3.12, -3.36, -3.25, -2.4, -2.32, -2.32, -2.54, -2.45, -1.25, -1.33, -1.33, -1.28, -1.28, -1.39, 0.0, 0.0, 0.0, 0.0, 0.0, 0.0, 0.0, 0.0, 0.0, 1.32, 1.25, 1.32, 2.69, 3.15, 2.83, 4.4, 4.4, 8.18, 9.33, 9.83, 10.28, 10.0, 5.4, 5.6, 5.8, 4.24, 6.0, 7.36, 10.43, 10.02, 11.7, 14.95, 15.47, 11.26, 3.67, -13.41, -4.6, -0.0, 0.0, 0.0, 0.0, -4.8, -7.59, -4.6, 0.0, 0.0, 0.0, -10.76, -10.76, -10.76, -10.43, -10.09, -10.09, -10.09, -10.09, -9.71, -10.01, -10.01, -10.01, -9.58, -9.58, -9.58, -9.02, -9.12, -8.61, -8.36, -7.82, -7.58, -7.01, -6.4, -6.4, -5.73, -5.73, -5.73, -5.02, -5.31, -5.31, -4.66, -4.96, -4.96, -4.05, -3.93, -4.21, -4.21, -3.12, -3.36, -3.25, -3.25, -2.32, -2.32, -2.45, -2.45, -1.38, -1.33, -1.33, -1.28, -1.28, -1.28, 0.0, 0.0, 0.0, 0.0, 0.0, 0.0, 0.0, 0.0, 0.0, 0.0, 0.0, 1.25, 1.32, 2.54, 2.83, 4.2, 4.6, 9.2, 9.2, 7.27, 6.95, 0.0, 7.9, 5.4, 0.0, 0.0, 4.1, 9.8, 10.43, 10.43, 11.33, 11.88, 8.99, 6.25, 0.0, -15.2, -4.8, -4.8, 0.0, 0.0, -3.68, -7.9, -7.59, -9.2, 0.0, 0.0, 0.0, -10.76, -10.44, -10.44, -10.12, -9.78, -9.78, -9.78, -9.71, -9.71, -9.71, -9.71, -9.3, -9.58, -9.87, -9.02, -8.76, -8.76, -8.36, -8.36, -7.58, -7.58, -7.01, -7.01, -6.4, -6.4, -5.73, -5.73, -5.73, -5.48, -5.48, -5.48, -4.96, -4.96, -4.96, -3.93, -4.21, -4.21, -4.08, -3.36, -3.25, -3.25, -3.41, -2.32, -2.45, -2.45, -2.37, -1.33, -1.33, -1.28, -1.28, -1.28, -1.44, -1.39, 0.0, 0.0, 0.0, 0.0, 0.0, 0.0, 0.0, 0.0, 0.0, 0.0, 1.25, 1.49, 1.4, 4.2, 6.64, 6.95, 7.27, 4.8, 4.8, 0.0, -9.83, 0.0, 0.0, 0.0, 5.8, 9.48, 9.8, 10.12, 11.17, 10.12, 4.88, 0.0, 0.0, -9.67, -8.53, -11.18, -3.53, -4.15, -6.71, -9.67, -10.0, -10.73, -0.0, -0.0, -0.0, -10.44, -10.44, -10.44, -9.78, -9.78, -9.78, -9.42, -9.42, -9.42, -9.71, -9.58, -9.58, -9.87, -9.23, -8.76, -8.76, -8.51, -8.01, -8.1, -8.1, -7.58, -7.58, -7.01, -6.4, -6.4, -6.4, -5.73, -5.91, -6.24, -5.48, -5.48, -5.81, -4.96, -4.96, -4.81, -4.21, -4.08, -4.08, -4.24, -3.25, -3.14, -3.41, -2.24, -2.45, -2.45, -2.37, -2.62, -2.62, -2.62, -2.52, -1.28, -1.44, -1.44, -1.39, -1.33, 0.0, 0.0, 0.0, 0.0, 0.0, 0.0, 0.0, 0.0, 0.0, 0.0, 1.49, 0.0, 0.0, 0.0, 0.0, 0.0, 0.0, 0.0, 0.0, -7.27, -5.0, 0.0, 0.0, 5.8, 9.17, 9.48, 11.88, 10.43, 1.6, 1.26, 0.0, 3.59, 0.0, -12.07, -10.8, -6.45, -9.17, -11.28, -11.62, -10.73, -4.6, -4.6, -4.6, -10.11, -10.11, -9.8, -9.48, -9.78, -9.78, -9.42, -9.42, -9.71, -10.01, -9.58, -9.58, -9.58, -9.23, -8.76, -8.51, -8.51, -8.01, -7.77, -8.1, -7.58, -7.58, -7.01, -7.01, -6.4, -6.6, -6.6, -5.91, -6.24, -6.24, -5.48, -5.81, -5.81, -4.81, -4.81, -5.14, -4.08, -4.08, -4.24, -3.25, -3.41, -3.41, -3.29, -3.6, -2.45, -2.37, -2.37, -2.62, -2.62, -2.62, -2.62, -2.93, -1.44, -1.39, -1.33, -1.45, -1.39, 0.0, 0.0, 0.0, 0.0, 0.0, 0.0, 0.0, 0.0, 0.0, 0.0, 0.0, 0.0, 0.0, 0.0, -7.27, 0.0, 0.0, 0.0, 0.0, 0.0, 5.4, 8.85, 11.2, 12.3, 12.39, 7.44, 6.8, 5.53, 4.93, 15.59, 9.48, -12.07, -11.03, -9.3, -9.58, -11.18, -10.6, -10.18, -8.55, -8.55, -8.55, -10.11, -10.11, -9.48, -9.48, -9.48, -9.42, -9.42, -9.71, -9.71, -9.71, -9.3, -9.58, -9.3, -8.51, -8.51, -8.51, -8.51, -8.01, -8.01, -7.77, -7.82, -7.82, -7.23, -7.23, -6.6, -6.6, -6.8, -6.09, -6.24, -6.24, -5.48, -5.81, -5.63, -5.63, -5.14, -4.97, -4.97, -4.38, -4.24, -4.24, -3.41, -3.41, -3.29, -3.29, -3.6, -3.47, -2.37, -2.37, -2.37, -2.62, -2.62, -2.62, -2.82, -1.39, -1.33, -1.28, -1.39, -1.33, 0.0, 0.0, 0.0, 0.0, 0.0, 0.0, 0.0, 0.0, 0.0, 0.0, -7.27, -10.73, -10.73, -9.6, -7.59, -7.27, 0.0, 0.0, 0.0, 8.22, 11.2, 11.2, 12.52, 13.41, 11.73, 9.99, 5.71, 5.65, 16.54, 10.8, 0.0, -11.18, -11.18, -11.03, -5.2, -7.9, -9.3, -6.95, -6.95, -6.95, -9.8, -9.8, -9.48, -9.48, -9.78, -9.42, -9.42, -9.42, -9.71, -9.3, -9.3, -9.3, -8.96, -8.51, -8.51, -8.51, -8.01, -8.01, -8.01, -8.01, -7.82, -7.82, -7.23, -7.45, -6.8, -6.8, -6.8, -5.91, -6.24, -6.24, -6.24, -5.63, -5.63, -5.63, -5.99, -4.97, -4.97, -5.16, -4.24, -4.1, -4.1, -3.41, -3.29, -3.29, -3.29, -3.47, -2.37, -2.37, -2.37, -2.37, -2.62, -2.62, -2.52, -2.71, -1.33, -1.28, -1.22, -1.16, -1.33, 0.0, 0.0, 0.0, 0.0, 0.0, 0.0, 0.0, 0.0, 0.0, -2.69, -7.59, -9.6, -10.73, -10.73, -7.27, -4.6, -7.27, -7.27, 0.0, 8.22, 8.53, 12.52, 12.79, 4.34, 2.97, 0.0, 0.0, 16.96, 12.27, 6.71, -5.0, -7.26, -2.28, -0.0, -6.45, -6.71, -4.6, -4.6, -4.6, -9.8, -9.8, -9.48, -9.48, -9.48, -9.13, -9.13, -9.42, -9.42, -9.02, -9.02, -9.02, -8.96, -8.51, -8.51, -8.51, -8.01, -8.26, -8.26, -8.26, -8.06, -8.06, -8.06, -7.45, -7.45, -6.8, -6.8, -6.6, -6.24, -6.24, -6.05, -6.4, -5.63, -5.63, -5.81, -5.81, -4.97, -5.16, -5.16, -4.1, -4.1, -4.1, -3.29, -3.29, -3.29, -3.29, -2.16, -2.37, -2.37, -2.37, -2.37, -2.28, -2.42, -2.42, -1.18, -1.28, -1.22, -1.22, -1.16, -1.11, -1.26, 0.0, 0.0, 0.0, 0.0, 0.0, 0.0, -1.4, -1.67, -4.6, -7.27, -7.59, -7.27, -6.95, -4.4, -4.4, -6.95, -7.27, 0.0, 0.0, 12.96, 0.0, 0.0, -3.16, -4.64, -5.44, 0.0, 13.59, 6.67, -0.0, -3.19, -3.19, -4.48, -6.45, -6.71, -5.0, -5.0, -5.0, -9.48, -9.48, -9.48, -9.48, -9.48, -9.13, -9.13, -9.13, -8.74, -9.02, -9.02, -8.96, -8.51, -8.51, -8.76, -8.76, -8.26, -8.26, -8.26, -8.61, -8.06, -8.06, -8.06, -7.45, -7.23, -6.8, -6.6, -6.94, -6.73, -6.05, -6.05, -6.4, -6.4, -5.46, -5.81, -5.81, -4.81, -4.81, -5.16, -4.1, -4.1, -4.1, -3.04, -3.29, -3.29, -3.29, -3.18, -2.16, -2.37, -2.37, -2.37, -2.28, -2.19, -2.42, -2.33, -1.14, -1.09, -1.22, -1.16, -1.11, -1.11, -1.2, -1.14, -1.2, -1.2, -1.4, -1.47, -1.47, -1.47, -4.6, -7.27, -9.2, -6.95, -6.64, 0.0, 0.0, 0.0, 0.0, 0.0, 5.2, 0.0, 0.0, -8.18, -5.51, -5.75, -3.66, -4.56, 0.0, 3.9, -0.0, -4.1, -5.11, -8.1, -10.37, -7.51, -7.51, -7.51, -7.51, -9.17, -9.17, -9.17, -9.48, -9.48, -9.13, -9.13, -9.13, -8.42, -8.69, -8.69, -8.96, -8.51, -8.76, -8.76, -8.76, -8.26, -8.26, -8.61, -8.61, -8.06, -7.82, -8.06, -7.45, -7.23, -7.23, -6.6, -6.73, -6.73, -6.05, -6.05, -6.4, -6.4, -5.46, -5.81, -5.62, -4.81, -4.81, -4.99, -4.1, -4.1, -4.1, -4.1, -3.04, -3.29, -3.29, -3.18, -3.18, -3.18, -2.37, -2.28, -2.19, -2.19, -2.1, -2.1, -2.23, -2.23, -1.09, -1.16, -1.11, -1.05, -1.05, -1.05, -1.2, -1.2, -1.4, -1.47, -1.47, -1.47, -2.83, -5.63, -7.9, -7.27, -6.64, -4.2, 0.0, 0.0, 0.0, 0.0, 3.68, 0.0, -6.0, -6.6, -5.23, -5.13, -5.11, -2.95, -5.4, -17.88, -5.23, -5.98, -7.59, -9.48, -11.5, -11.6, -12.3, -12.3, -12.3, -9.17, -9.17, -9.17, -9.17, -8.83, -9.13, -9.13, -8.74, -8.42, -8.69, -8.69, -8.51, -8.51, -8.76, -8.76, -8.76, -8.76, -8.61, -8.61, -8.61, -7.82, -7.82, -8.06, -8.06, -7.23, -7.23, -6.4, -6.73, -6.73, -6.05, -6.05, -6.4, -6.2, -5.46, -5.46, -5.62, -4.81, -4.65, -4.65, -4.99, -4.1, -4.1, -4.1, -4.1, -3.04, -3.29, -3.18, -3.18, -3.18, -3.18, -3.06, -3.21, -2.19, -2.1, -2.02, -2.02, -2.23, -2.13, -2.04, -1.94, -1.11, -1.05, -1.05, -1.05, -1.2, -1.2, -2.83, -2.83, -2.83, -2.46, -2.97, -7.9, -7.27, -9.6, -6.64, -4.4, -3.11, 0.0, 0.0, 0.0, 0.0, -3.14, -5.31, -6.16, -3.45, -3.44, -1.37, 0.0, -2.66, -10.41, -16.96, -13.23, -11.8, -12.71, -12.96, -4.1, -4.1, -4.1, -9.17, -9.17, -9.17, -9.17, -8.83, -8.83, -8.83, -8.74, -8.42, -8.69, -8.69, -8.51, -8.51, -8.51, -8.51, -8.51, -8.85, -8.36, -8.36, -8.36, -8.36, -7.82, -7.82, -7.82, -7.23, -7.01, -6.4, -6.73, -6.73, -6.73, -6.05, -6.2, -6.2, -5.46, -5.28, -5.28, -5.62, -4.65, -4.65, -4.65, -4.99, -4.1, -4.1, -3.96, -3.96, -3.96, -3.18, -3.18, -3.18, -3.06, -3.06, -3.21, -3.21, -3.08, -2.1, -2.02, -2.02, -2.13, -2.04, -2.04, -1.94, -2.06, -2.06, -2.06, -1.05, -1.05, -2.46, -2.83, -2.83, -2.46, -2.58, -2.97, -4.83, -8.22, -6.64, -6.95, -6.95, 0.0, 0.0, 0.0, 0.0, -2.54, -5.15, -5.81, -3.36, 0.0, 0.0, 1.31, 0.0, 0.0, -3.77, -14.51, -15.27, -7.93, 0.0, 0.0, 0.0, 0.0, -9.17, -9.17, -9.17, -9.17, -8.83, -8.83, -8.83, -8.74, -8.42, -8.69, -8.69, -8.51, -8.51, -8.51, -8.51, -8.51, -8.85, -8.36, -8.36, -8.36, -8.36, -7.82, -7.82, -7.82, -7.23, -7.01, -6.4, -6.73, -6.73, -6.73, -6.05, -6.2, -6.2, -5.46, -5.28, -5.28, -5.62, -4.65, -4.65, -4.65, -4.99, -4.1, -4.1, -3.96, -3.96, -3.96, -3.18, -3.18, -3.18, -3.06, -3.06, -3.21, -3.21, -3.08, -2.1, -2.02, -2.02, -2.13, -2.04, -2.04, -1.94, -2.06, -2.06, -2.06, -1.05, -1.05, -2.46, -2.83, -2.83, -2.46, -2.58, -2.97, -4.83, -8.22, -6.64, -6.95, -4.4, 0.0, 0.0, 0.0, 0.0, -2.06, -2.2, -3.93, -1.78, 0.0, 0.0, 1.31, 2.61, 2.97, 1.67, 0.0, 0.0, 0.0, 0.0, 2.13, 2.13, 2.13]}]